Observation data for Colorado City on 03/22/2019      Previous  Date  Next       Current Mesonet Observations  Soil Data  Daily Summary Page  Observations in Plain Language
KCO2 220500Z 11005KT 12/02 A3016 RMK A01 T01220019  RH  049%=      5-min Rain = 0
KCO2 220501Z 11005KT 12/02 A3016 RMK A01 T01220019  RH  049%=      5-min Rain = 0
KCO2 220502Z 11005KT 12/02 A3016 RMK A01 T01230019  RH  049%=      5-min Rain = 0
KCO2 220503Z 11005KT 12/02 A3016 RMK A01 T01230019  RH  049%=      5-min Rain = 0
KCO2 220504Z 11005KT 12/02 A3016 RMK A01 T01230019  RH  049%=      5-min Rain = 0
KCO2 220505Z 11005KT 12/02 A3016 RMK A01 T01240019  RH  049%=      5-min Rain = 0
KCO2 220506Z 10005KT 12/02 A3016 RMK A01 T01240019  RH  049%=      5-min Rain = 0
KCO2 220507Z 11005KT 12/02 A3016 RMK A01 T01240019  RH  049%=      5-min Rain = 0
KCO2 220508Z 10005KT 12/02 A3016 RMK A01 T01240019  RH  049%=      5-min Rain = 0
KCO2 220509Z 11005KT 12/02 A3016 RMK A01 T01240020  RH  049%=      5-min Rain = 0
KCO2 220510Z 10005KT 12/02 A3016 RMK A01 T01240020  RH  049%=      5-min Rain = 0
KCO2 220511Z 10005KT 12/02 A3016 RMK A01 T01240020  RH  049%=      5-min Rain = 0
KCO2 220512Z 11005KT 12/02 A3016 RMK A01 T01240020  RH  049%=      5-min Rain = 0
KCO2 220513Z 11006KT 12/02 A3016 RMK A01 T01230020  RH  049%=      5-min Rain = 0
KCO2 220514Z 11006KT 12/02 A3016 RMK A01 T01220021  RH  050%=      5-min Rain = 0
KCO2 220515Z 12006KT 12/02 A3016 RMK A01 T01220021  RH  050%=      5-min Rain = 0
KCO2 220516Z 12006KT 12/02 A3016 RMK A01 T01210021  RH  050%=      5-min Rain = 0
KCO2 220517Z 12006KT 12/02 A3016 RMK A01 T01200021  RH  051%=      5-min Rain = 0
KCO2 220518Z 12006KT 12/02 A3016 RMK A01 T01190021  RH  051%=      5-min Rain = 0
KCO2 220519Z 11006KT 12/02 A3016 RMK A01 T01180021  RH  051%=      5-min Rain = 0
KCO2 220520Z 12006KT 12/02 A3016 RMK A01 T01180022  RH  052%=      5-min Rain = 0
KCO2 220521Z 12006KT 12/02 A3016 RMK A01 T01170022  RH  052%=      5-min Rain = 0
KCO2 220522Z 12006KT 12/02 A3016 RMK A01 T01170022  RH  052%=      5-min Rain = 0
KCO2 220523Z 12006KT 12/02 A3016 RMK A01 T01170022  RH  052%=      5-min Rain = 0
KCO2 220524Z 13006KT 12/02 A3016 RMK A01 T01170022  RH  052%=      5-min Rain = 0
KCO2 220525Z 12006KT 12/02 A3016 RMK A01 T01170022  RH  052%=      5-min Rain = 0
KCO2 220526Z 12006KT 12/02 A3016 RMK A01 T01180022  RH  052%=      5-min Rain = 0
KCO2 220527Z 13006KT 12/02 A3016 RMK A01 T01180023  RH  052%=      5-min Rain = 0
KCO2 220528Z 13006KT 12/02 A3016 RMK A01 T01170022  RH  052%=      5-min Rain = 0
KCO2 220529Z 12006KT 12/02 A3016 RMK A01 T01170022  RH  052%=      5-min Rain = 0
KCO2 220530Z 12006KT 12/02 A3016 RMK A01 T01170022  RH  052%=      5-min Rain = 0
KCO2 220531Z 12005KT 12/02 A3016 RMK A01 T01170023  RH  052%=      5-min Rain = 0
KCO2 220532Z 12005KT 12/02 A3016 RMK A01 T01160022  RH  053%=      5-min Rain = 0
KCO2 220533Z 12006KT 12/02 A3016 RMK A01 T01150022  RH  053%=      5-min Rain = 0
KCO2 220534Z 12006KT 12/02 A3016 RMK A01 T01150022  RH  053%=      5-min Rain = 0
KCO2 220535Z 12006KT 12/02 A3016 RMK A01 T01150022  RH  053%=      5-min Rain = 0
KCO2 220536Z 12006KT 11/02 A3016 RMK A01 T01140022  RH  053%=      5-min Rain = 0
KCO2 220537Z 12006KT 12/02 A3016 RMK A01 T01150022  RH  053%=      5-min Rain = 0
KCO2 220538Z 11005KT 12/02 A3017 RMK A01 T01160022  RH  053%=      5-min Rain = 0
KCO2 220539Z 12005KT 12/02 A3017 RMK A01 T01160022  RH  052%=      5-min Rain = 0
KCO2 220540Z 11005KT 12/02 A3017 RMK A01 T01160022  RH  052%=      5-min Rain = 0
KCO2 220541Z 11005KT 12/02 A3017 RMK A01 T01170023  RH  052%=      5-min Rain = 0
KCO2 220542Z 11005KT 12/02 A3017 RMK A01 T01160022  RH  052%=      5-min Rain = 0
KCO2 220543Z 11005KT 12/02 A3017 RMK A01 T01160022  RH  053%=      5-min Rain = 0
KCO2 220544Z 11005KT 12/02 A3017 RMK A01 T01150022  RH  053%=      5-min Rain = 0
KCO2 220545Z 11005KT 11/02 A3017 RMK A01 T01140022  RH  053%=      5-min Rain = 0
KCO2 220546Z 11006KT 11/02 A3017 RMK A01 T01140022  RH  053%=      5-min Rain = 0
KCO2 220547Z 11006KT 11/02 A3017 RMK A01 T01140022  RH  053%=      5-min Rain = 0
KCO2 220548Z 11006KT 11/02 A3017 RMK A01 T01140023  RH  053%=      5-min Rain = 0
KCO2 220549Z 11006KT 12/02 A3017 RMK A01 T01150023  RH  053%=      5-min Rain = 0
KCO2 220550Z 11006KT 12/02 A3017 RMK A01 T01160024  RH  053%=      5-min Rain = 0
KCO2 220551Z 11006KT 12/02 A3017 RMK A01 T01160023  RH  053%=      5-min Rain = 0
KCO2 220552Z 12006KT 12/02 A3017 RMK A01 T01170024  RH  053%=      5-min Rain = 0
KCO2 220553Z 11006KT 12/02 A3016 RMK A01 T01170023  RH  053%=      5-min Rain = 0
KCO2 220554Z 11006KT 12/02 A3016 RMK A01 T01170023  RH  053%=      5-min Rain = 0
KCO2 220555Z 12006KT 12/02 A3016 RMK A01 T01160023  RH  053%=      5-min Rain = 0
KCO2 220556Z 12006KT 12/02 A3017 RMK A01 T01160022  RH  053%=      5-min Rain = 0
KCO2 220557Z 12005KT 12/02 A3017 RMK A01 T01160023  RH  053%=      5-min Rain = 0
KCO2 220558Z 12006KT 12/02 A3017 RMK A01 T01150022  RH  053%=      5-min Rain = 0
KCO2 220559Z 13005KT 12/02 A3017 RMK A01 T01150023  RH  053%=      5-min Rain = 0
KCO2 220600Z 12006KT 12/02 A3017 RMK A01 T01150023  RH  053%=      5-min Rain = 0
KCO2 220601Z 13005KT 12/02 A3017 RMK A01 T01150023  RH  053%=      5-min Rain = 0
KCO2 220602Z 12006KT 12/02 A3017 RMK A01 T01150023  RH  053%=      5-min Rain = 0
KCO2 220603Z 13006KT 12/02 A3017 RMK A01 T01150023  RH  053%=      5-min Rain = 0
KCO2 220604Z 13006KT 12/02 A3017 RMK A01 T01150023  RH  053%=      5-min Rain = 0
KCO2 220605Z 13006KT 12/02 A3017 RMK A01 T01150022  RH  053%=      5-min Rain = 0
KCO2 220606Z 13006KT 12/02 A3017 RMK A01 T01150022  RH  053%=      5-min Rain = 0
KCO2 220607Z 13006KT 12/02 A3017 RMK A01 T01150022  RH  053%=      5-min Rain = 0
KCO2 220608Z 13006KT 12/02 A3017 RMK A01 T01150022  RH  053%=      5-min Rain = 0
KCO2 220609Z 13006KT 12/02 A3016 RMK A01 T01150022  RH  053%=      5-min Rain = 0
KCO2 220610Z 13006KT 12/02 A3016 RMK A01 T01150022  RH  053%=      5-min Rain = 0
KCO2 220611Z 13006KT 12/02 A3016 RMK A01 T01150022  RH  053%=      5-min Rain = 0
KCO2 220612Z 13006KT 12/02 A3016 RMK A01 T01150022  RH  053%=      5-min Rain = 0
KCO2 220613Z 13007KT 12/02 A3016 RMK A01 T01150022  RH  053%=      5-min Rain = 0
KCO2 220614Z 13006KT 12/02 A3016 RMK A01 T01150022  RH  053%=      5-min Rain = 0
KCO2 220615Z 13006KT 12/02 A3016 RMK A01 T01150022  RH  053%=      5-min Rain = 0
KCO2 220616Z 13006KT 11/02 A3016 RMK A01 T01140022  RH  053%=      5-min Rain = 0
KCO2 220617Z 13006KT 11/02 A3016 RMK A01 T01140023  RH  053%=      5-min Rain = 0
KCO2 220618Z 13006KT 11/02 A3016 RMK A01 T01140022  RH  053%=      5-min Rain = 0
KCO2 220619Z 13007KT 11/02 A3016 RMK A01 T01140023  RH  053%=      5-min Rain = 0
KCO2 220620Z 13007KT 11/02 A3016 RMK A01 T01140023  RH  053%=      5-min Rain = 0
KCO2 220621Z 13007KT 11/02 A3016 RMK A01 T01140022  RH  053%=      5-min Rain = 0
KCO2 220622Z 13008KT 11/02 A3016 RMK A01 T01130022  RH  053%=      5-min Rain = 0
KCO2 220623Z 13008KT 11/02 A3015 RMK A01 T01140022  RH  053%=      5-min Rain = 0
KCO2 220624Z 13008KT 11/02 A3015 RMK A01 T01140022  RH  053%=      5-min Rain = 0
KCO2 220625Z 13008KT 11/02 A3015 RMK A01 T01140023  RH  053%=      5-min Rain = 0
KCO2 220626Z 13008KT 11/02 A3015 RMK A01 T01140023  RH  053%=      5-min Rain = 0
KCO2 220627Z 13009KT 11/02 A3015 RMK A01 T01140023  RH  054%=      5-min Rain = 0
KCO2 220628Z 13009KT 11/02 A3015 RMK A01 T01140023  RH  054%=      5-min Rain = 0
KCO2 220629Z 13008KT 11/02 A3015 RMK A01 T01140024  RH  054%=      5-min Rain = 0
KCO2 220630Z 13008KT 11/02 A3015 RMK A01 T01140023  RH  054%=      5-min Rain = 0
KCO2 220631Z 13008KT 11/02 A3015 RMK A01 T01140023  RH  054%=      5-min Rain = 0
KCO2 220632Z 13008KT 11/02 A3015 RMK A01 T01140024  RH  054%=      5-min Rain = 0
KCO2 220633Z 13007KT 11/02 A3015 RMK A01 T01140023  RH  054%=      5-min Rain = 0
KCO2 220634Z 13007KT 11/02 A3015 RMK A01 T01130023  RH  054%=      5-min Rain = 0
KCO2 220635Z 13007KT 11/02 A3015 RMK A01 T01130022  RH  053%=      5-min Rain = 0
KCO2 220636Z 13007KT 11/02 A3015 RMK A01 T01130022  RH  053%=      5-min Rain = 0
KCO2 220637Z 13007KT 11/02 A3015 RMK A01 T01130020  RH  053%=      5-min Rain = 0
KCO2 220638Z 13007KT 11/02 A3015 RMK A01 T01130019  RH  052%=      5-min Rain = 0
KCO2 220639Z 13007KT 11/02 A3015 RMK A01 T01140018  RH  052%=      5-min Rain = 0
KCO2 220640Z 13006KT 11/02 A3015 RMK A01 T01140018  RH  051%=      5-min Rain = 0
KCO2 220641Z 12006KT 12/02 A3015 RMK A01 T01150018  RH  051%=      5-min Rain = 0
KCO2 220642Z 12006KT 12/02 A3015 RMK A01 T01150018  RH  051%=      5-min Rain = 0
KCO2 220643Z 13006KT 12/02 A3015 RMK A01 T01150017  RH  051%=      5-min Rain = 0
KCO2 220644Z 12007KT 12/02 A3015 RMK A01 T01150017  RH  051%=      5-min Rain = 0
KCO2 220645Z 12007KT 12/02 A3015 RMK A01 T01150017  RH  051%=      5-min Rain = 0
KCO2 220646Z 12007KT 12/02 A3015 RMK A01 T01150016  RH  050%=      5-min Rain = 0
KCO2 220647Z 12007KT 12/02 A3015 RMK A01 T01150015  RH  050%=      5-min Rain = 0
KCO2 220648Z 13007KT 12/02 A3015 RMK A01 T01150016  RH  050%=      5-min Rain = 0
KCO2 220649Z 13007KT 12/02 A3015 RMK A01 T01150016  RH  051%=      5-min Rain = 0
KCO2 220650Z 12007KT 12/02 A3015 RMK A01 T01150016  RH  051%=      5-min Rain = 0
KCO2 220651Z 13008KT 12/02 A3015 RMK A01 T01150016  RH  051%=      5-min Rain = 0
KCO2 220652Z 13008KT 12/02 A3015 RMK A01 T01150015  RH  050%=      5-min Rain = 0
KCO2 220653Z 13007KT 12/02 A3015 RMK A01 T01150015  RH  050%=      5-min Rain = 0
KCO2 220654Z 13007KT 12/01 A3015 RMK A01 T01150014  RH  050%=      5-min Rain = 0
KCO2 220655Z 13007KT 12/02 A3015 RMK A01 T01150015  RH  050%=      5-min Rain = 0
KCO2 220656Z 13007KT 12/01 A3015 RMK A01 T01150014  RH  050%=      5-min Rain = 0
KCO2 220657Z 13007KT 12/01 A3014 RMK A01 T01150014  RH  050%=      5-min Rain = 0
KCO2 220658Z 13007KT 12/01 A3014 RMK A01 T01150014  RH  050%=      5-min Rain = 0
KCO2 220659Z 13007KT 12/01 A3014 RMK A01 T01150014  RH  050%=      5-min Rain = 0
KCO2 220700Z 13008KT 12/01 A3014 RMK A01 T01150014  RH  050%=      5-min Rain = 0
KCO2 220701Z 13008KT 12/01 A3014 RMK A01 T01150014  RH  050%=      5-min Rain = 0
KCO2 220702Z 13008KT 12/01 A3014 RMK A01 T01150014  RH  050%=      5-min Rain = 0
KCO2 220703Z 13008KT 12/01 A3014 RMK A01 T01150013  RH  050%=      5-min Rain = 0
KCO2 220704Z 13008KT 12/01 A3014 RMK A01 T01150013  RH  049%=      5-min Rain = 0
KCO2 220705Z 13007KT 12/01 A3014 RMK A01 T01160012  RH  049%=      5-min Rain = 0
KCO2 220706Z 13008KT 12/01 A3014 RMK A01 T01160012  RH  049%=      5-min Rain = 0
KCO2 220707Z 12008KT 12/01 A3014 RMK A01 T01160012  RH  049%=      5-min Rain = 0
KCO2 220708Z 12008KT 12/01 A3014 RMK A01 T01150012  RH  049%=      5-min Rain = 0
KCO2 220709Z 12007KT 12/01 A3014 RMK A01 T01160012  RH  049%=      5-min Rain = 0
KCO2 220710Z 12007KT 12/01 A3014 RMK A01 T01150012  RH  049%=      5-min Rain = 0
KCO2 220711Z 12008KT 12/01 A3014 RMK A01 T01150012  RH  049%=      5-min Rain = 0
KCO2 220712Z 12008KT 12/01 A3014 RMK A01 T01150011  RH  049%=      5-min Rain = 0
KCO2 220713Z 12008KT 12/01 A3014 RMK A01 T01160012  RH  049%=      5-min Rain = 0
KCO2 220714Z 12008KT 12/01 A3014 RMK A01 T01160011  RH  048%=      5-min Rain = 0
KCO2 220715Z 12008KT 12/01 A3014 RMK A01 T01160010  RH  048%=      5-min Rain = 0
KCO2 220716Z 12007KT 12/01 A3014 RMK A01 T01160010  RH  048%=      5-min Rain = 0
KCO2 220717Z 11008KT 12/01 A3014 RMK A01 T01160010  RH  048%=      5-min Rain = 0
KCO2 220718Z 11007KT 12/01 A3014 RMK A01 T01160010  RH  048%=      5-min Rain = 0
KCO2 220719Z 11007KT 12/01 A3014 RMK A01 T01150011  RH  049%=      5-min Rain = 0
KCO2 220720Z 11007KT 11/01 A3014 RMK A01 T01140010  RH  049%=      5-min Rain = 0
KCO2 220721Z 11007KT 11/01 A3014 RMK A01 T01130010  RH  049%=      5-min Rain = 0
KCO2 220722Z 11007KT 11/01 A3014 RMK A01 T01130010  RH  049%=      5-min Rain = 0
KCO2 220723Z 11007KT 11/01 A3014 RMK A01 T01120009  RH  049%=      5-min Rain = 0
KCO2 220724Z 11007KT 11/01 A3014 RMK A01 T01120009  RH  049%=      5-min Rain = 0
KCO2 220725Z 11007KT 11/01 A3014 RMK A01 T01120008  RH  049%=      5-min Rain = 0
KCO2 220726Z 11008KT 11/01 A3014 RMK A01 T01120008  RH  049%=      5-min Rain = 0
KCO2 220727Z 11007KT 11/01 A3014 RMK A01 T01120007  RH  048%=      5-min Rain = 0
KCO2 220728Z 11008KT 11/01 A3014 RMK A01 T01130007  RH  048%=      5-min Rain = 0
KCO2 220729Z 11008KT 11/01 A3013 RMK A01 T01120007  RH  048%=      5-min Rain = 0
KCO2 220730Z 11008KT 11/01 A3013 RMK A01 T01130007  RH  048%=      5-min Rain = 0
KCO2 220731Z 11008KT 11/01 A3013 RMK A01 T01120007  RH  048%=      5-min Rain = 0
KCO2 220732Z 11008KT 11/01 A3013 RMK A01 T01130007  RH  048%=      5-min Rain = 0
KCO2 220733Z 12008KT 11/01 A3013 RMK A01 T01130006  RH  048%=      5-min Rain = 0
KCO2 220734Z 12008KT 11/01 A3013 RMK A01 T01130006  RH  047%=      5-min Rain = 0
KCO2 220735Z 12008KT 11/01 A3013 RMK A01 T01140006  RH  047%=      5-min Rain = 0
KCO2 220736Z 12008KT 11/01 A3013 RMK A01 T01140005  RH  047%=      5-min Rain = 0
KCO2 220737Z 12008KT 11/01 A3013 RMK A01 T01140005  RH  047%=      5-min Rain = 0
KCO2 220738Z 12008KT 11/01 A3013 RMK A01 T01140005  RH  047%=      5-min Rain = 0
KCO2 220739Z 12009KT 12/01 A3013 RMK A01 T01150006  RH  047%=      5-min Rain = 0
KCO2 220740Z 12009KT 12/01 A3013 RMK A01 T01150005  RH  047%=      5-min Rain = 0
KCO2 220741Z 12008KT 12/01 A3013 RMK A01 T01150006  RH  047%=      5-min Rain = 0
KCO2 220742Z 12008KT 12/01 A3013 RMK A01 T01150006  RH  047%=      5-min Rain = 0
KCO2 220743Z 12009KT 12/01 A3013 RMK A01 T01150006  RH  047%=      5-min Rain = 0
KCO2 220744Z 12009KT 12/01 A3013 RMK A01 T01150006  RH  047%=      5-min Rain = 0
KCO2 220745Z 12009KT 12/01 A3013 RMK A01 T01150006  RH  047%=      5-min Rain = 0
KCO2 220746Z 12008KT 11/01 A3013 RMK A01 T01140005  RH  047%=      5-min Rain = 0
KCO2 220747Z 12008KT 12/01 A3013 RMK A01 T01150005  RH  047%=      5-min Rain = 0
KCO2 220748Z 12008KT 12/01 A3013 RMK A01 T01150005  RH  047%=      5-min Rain = 0
KCO2 220749Z 12008KT 12/01 A3013 RMK A01 T01150005  RH  047%=      5-min Rain = 0
KCO2 220750Z 12008KT 12/01 A3013 RMK A01 T01150005  RH  047%=      5-min Rain = 0
KCO2 220751Z 12008KT 12/01 A3013 RMK A01 T01150005  RH  047%=      5-min Rain = 0
KCO2 220752Z 12008KT 12/01 A3013 RMK A01 T01150005  RH  047%=      5-min Rain = 0
KCO2 220753Z 12007KT 11/01 A3013 RMK A01 T01140005  RH  047%=      5-min Rain = 0
KCO2 220754Z 12008KT 11/01 A3013 RMK A01 T01130006  RH  048%=      5-min Rain = 0
KCO2 220755Z 12007KT 11/01 A3012 RMK A01 T01120005  RH  048%=      5-min Rain = 0
KCO2 220756Z 12007KT 11/01 A3012 RMK A01 T01120005  RH  048%=      5-min Rain = 0
KCO2 220757Z 12008KT 11/01 A3012 RMK A01 T01110005  RH  048%=      5-min Rain = 0
KCO2 220758Z 12007KT 11/01 A3012 RMK A01 T01110005  RH  048%=      5-min Rain = 0
KCO2 220759Z 12007KT 11/01 A3012 RMK A01 T01110005  RH  048%=      5-min Rain = 0
KCO2 220800Z 12007KT 11/01 A3013 RMK A01 T01110005  RH  048%=      5-min Rain = 0
KCO2 220801Z 12007KT 11/01 A3013 RMK A01 T01110005  RH  048%=      5-min Rain = 0
KCO2 220802Z 12007KT 11/01 A3013 RMK A01 T01110005  RH  048%=      5-min Rain = 0
KCO2 220803Z 12006KT 11/01 A3013 RMK A01 T01110005  RH  048%=      5-min Rain = 0
KCO2 220804Z 12006KT 11/01 A3013 RMK A01 T01110005  RH  048%=      5-min Rain = 0
KCO2 220805Z 12007KT 11/01 A3013 RMK A01 T01110005  RH  048%=      5-min Rain = 0
KCO2 220806Z 12007KT 11/01 A3013 RMK A01 T01100005  RH  048%=      5-min Rain = 0
KCO2 220807Z 12007KT 11/01 A3013 RMK A01 T01100005  RH  048%=      5-min Rain = 0
KCO2 220808Z 12007KT 11/01 A3012 RMK A01 T01090005  RH  048%=      5-min Rain = 0
KCO2 220809Z 12007KT 11/01 A3012 RMK A01 T01090005  RH  049%=      5-min Rain = 0
KCO2 220810Z 12007KT 11/01 A3012 RMK A01 T01080005  RH  049%=      5-min Rain = 0
KCO2 220811Z 12007KT 11/01 A3012 RMK A01 T01090005  RH  049%=      5-min Rain = 0
KCO2 220812Z 12007KT 11/01 A3012 RMK A01 T01080005  RH  049%=      5-min Rain = 0
KCO2 220813Z 12007KT 11/01 A3012 RMK A01 T01080005  RH  049%=      5-min Rain = 0
KCO2 220814Z 13007KT 11/01 A3013 RMK A01 T01080005  RH  049%=      5-min Rain = 0
KCO2 220815Z 13007KT 11/01 A3013 RMK A01 T01080005  RH  049%=      5-min Rain = 0
KCO2 220816Z 13006KT 11/01 A3013 RMK A01 T01070005  RH  049%=      5-min Rain = 0
KCO2 220817Z 13006KT 11/01 A3013 RMK A01 T01070005  RH  049%=      5-min Rain = 0
KCO2 220818Z 12006KT 11/01 A3013 RMK A01 T01070005  RH  049%=      5-min Rain = 0
KCO2 220819Z 12006KT 11/01 A3013 RMK A01 T01070005  RH  049%=      5-min Rain = 0
KCO2 220820Z 12006KT 11/01 A3013 RMK A01 T01070005  RH  049%=      5-min Rain = 0
KCO2 220821Z 12006KT 11/00 A3013 RMK A01 T01060004  RH  049%=      5-min Rain = 0
KCO2 220822Z 11006KT 11/01 A3013 RMK A01 T01060005  RH  049%=      5-min Rain = 0
KCO2 220823Z 11007KT 11/00 A3013 RMK A01 T01060004  RH  049%=      5-min Rain = 0
KCO2 220824Z 11007KT 11/01 A3012 RMK A01 T01050005  RH  050%=      5-min Rain = 0
KCO2 220825Z 11007KT 11/00 A3012 RMK A01 T01050004  RH  050%=      5-min Rain = 0
KCO2 220826Z 11007KT 10/00 A3012 RMK A01 T01040004  RH  050%=      5-min Rain = 0
KCO2 220827Z 11008KT 10/01 A3012 RMK A01 T01040005  RH  050%=      5-min Rain = 0
KCO2 220828Z 11008KT 10/01 A3012 RMK A01 T01040005  RH  050%=      5-min Rain = 0
KCO2 220829Z 11008KT 10/01 A3012 RMK A01 T01030005  RH  050%=      5-min Rain = 0
KCO2 220830Z 11008KT 10/01 A3012 RMK A01 T01030005  RH  051%=      5-min Rain = 0
KCO2 220831Z 11008KT 10/01 A3012 RMK A01 T01040005  RH  050%=      5-min Rain = 0
KCO2 220832Z 11007KT 10/01 A3012 RMK A01 T01030005  RH  050%=      5-min Rain = 0
KCO2 220833Z 11007KT 10/01 A3012 RMK A01 T01040005  RH  050%=      5-min Rain = 0
KCO2 220834Z 11007KT 10/01 A3012 RMK A01 T01040005  RH  050%=      5-min Rain = 0
KCO2 220835Z 11007KT 10/01 A3012 RMK A01 T01040005  RH  050%=      5-min Rain = 0
KCO2 220836Z 11007KT 10/01 A3012 RMK A01 T01040005  RH  050%=      5-min Rain = 0
KCO2 220837Z 11007KT 10/01 A3011 RMK A01 T01040005  RH  050%=      5-min Rain = 0
KCO2 220838Z 11007KT 10/01 A3011 RMK A01 T01040005  RH  050%=      5-min Rain = 0
KCO2 220839Z 11008KT 10/01 A3011 RMK A01 T01040005  RH  050%=      5-min Rain = 0
KCO2 220840Z 11008KT 10/01 A3011 RMK A01 T01040005  RH  050%=      5-min Rain = 0
KCO2 220841Z 11008KT 10/01 A3011 RMK A01 T01040005  RH  050%=      5-min Rain = 0
KCO2 220842Z 11008KT 10/01 A3011 RMK A01 T01040005  RH  050%=      5-min Rain = 0
KCO2 220843Z 11008KT 10/01 A3011 RMK A01 T01040005  RH  050%=      5-min Rain = 0
KCO2 220844Z 11008KT 10/01 A3011 RMK A01 T01040005  RH  050%=      5-min Rain = 0
KCO2 220845Z 11008KT 10/01 A3011 RMK A01 T01040005  RH  050%=      5-min Rain = 0
KCO2 220846Z 11008KT 10/01 A3011 RMK A01 T01040005  RH  050%=      5-min Rain = 0
KCO2 220847Z 11008KT 10/01 A3011 RMK A01 T01040005  RH  050%=      5-min Rain = 0
KCO2 220848Z 11008KT 10/01 A3011 RMK A01 T01040005  RH  051%=      5-min Rain = 0
KCO2 220849Z 11007KT 10/01 A3011 RMK A01 T01030005  RH  051%=      5-min Rain = 0
KCO2 220850Z 11007KT 10/01 A3011 RMK A01 T01030005  RH  051%=      5-min Rain = 0
KCO2 220851Z 11008KT 10/01 A3011 RMK A01 T01030006  RH  051%=      5-min Rain = 0
KCO2 220852Z 11007KT 10/01 A3011 RMK A01 T01030006  RH  051%=      5-min Rain = 0
KCO2 220853Z 11007KT 10/01 A3011 RMK A01 T01030006  RH  051%=      5-min Rain = 0
KCO2 220854Z 11007KT 10/01 A3011 RMK A01 T01030005  RH  051%=      5-min Rain = 0
KCO2 220855Z 11007KT 10/01 A3011 RMK A01 T01030005  RH  051%=      5-min Rain = 0
KCO2 220856Z 11006KT 10/01 A3011 RMK A01 T01030005  RH  051%=      5-min Rain = 0
KCO2 220857Z 11006KT 10/01 A3011 RMK A01 T01030005  RH  051%=      5-min Rain = 0
KCO2 220858Z 11006KT 10/01 A3011 RMK A01 T01030005  RH  051%=      5-min Rain = 0
KCO2 220859Z 11006KT 10/01 A3011 RMK A01 T01030005  RH  051%=      5-min Rain = 0
KCO2 220900Z 11006KT 10/01 A3011 RMK A01 T01020005  RH  051%=      5-min Rain = 0
KCO2 220901Z 11006KT 10/01 A3011 RMK A01 T01020005  RH  051%=      5-min Rain = 0
KCO2 220902Z 11006KT 10/01 A3011 RMK A01 T01020005  RH  051%=      5-min Rain = 0
KCO2 220903Z 11006KT 10/01 A3011 RMK A01 T01020005  RH  051%=      5-min Rain = 0
KCO2 220904Z 11006KT 10/01 A3011 RMK A01 T01010005  RH  051%=      5-min Rain = 0
KCO2 220905Z 11006KT 10/01 A3011 RMK A01 T01010005  RH  051%=      5-min Rain = 0
KCO2 220906Z 11006KT 10/01 A3011 RMK A01 T01000005  RH  052%=      5-min Rain = 0
KCO2 220907Z 11006KT 10/01 A3011 RMK A01 T01000005  RH  052%=      5-min Rain = 0
KCO2 220908Z 11006KT 10/01 A3011 RMK A01 T01000005  RH  052%=      5-min Rain = 0
KCO2 220909Z 12006KT 10/01 A3011 RMK A01 T00990005  RH  052%=      5-min Rain = 0
KCO2 220910Z 12005KT 10/01 A3011 RMK A01 T00990005  RH  052%=      5-min Rain = 0
KCO2 220911Z 12005KT 10/00 A3011 RMK A01 T00990004  RH  052%=      5-min Rain = 0
KCO2 220912Z 12005KT 10/01 A3011 RMK A01 T00990005  RH  052%=      5-min Rain = 0
KCO2 220913Z 12005KT 10/01 A3011 RMK A01 T00990005  RH  052%=      5-min Rain = 0
KCO2 220914Z 13005KT 10/01 A3011 RMK A01 T00990005  RH  052%=      5-min Rain = 0
KCO2 220915Z 13005KT 10/00 A3011 RMK A01 T00980004  RH  052%=      5-min Rain = 0
KCO2 220916Z 13004KT 10/00 A3011 RMK A01 T00980004  RH  052%=      5-min Rain = 0
KCO2 220917Z 13004KT 10/01 A3011 RMK A01 T00980005  RH  052%=      5-min Rain = 0
KCO2 220918Z 13004KT 10/00 A3011 RMK A01 T00980004  RH  052%=      5-min Rain = 0
KCO2 220919Z 13004KT 10/00 A3011 RMK A01 T00980004  RH  052%=      5-min Rain = 0
KCO2 220920Z 12004KT 10/00 A3011 RMK A01 T00980004  RH  052%=      5-min Rain = 0
KCO2 220921Z 12004KT 10/00 A3011 RMK A01 T00980004  RH  052%=      5-min Rain = 0
KCO2 220922Z 12004KT 10/00 A3011 RMK A01 T00990004  RH  052%=      5-min Rain = 0
KCO2 220923Z 12004KT 10/00 A3011 RMK A01 T00990004  RH  052%=      5-min Rain = 0
KCO2 220924Z 12004KT 10/00 A3011 RMK A01 T00990004  RH  051%=      5-min Rain = 0
KCO2 220925Z 13005KT 10/00 A3011 RMK A01 T01000004  RH  051%=      5-min Rain = 0
KCO2 220926Z 12005KT 10/00 A3011 RMK A01 T01000004  RH  051%=      5-min Rain = 0
KCO2 220927Z 12005KT 10/00 A3011 RMK A01 T01000004  RH  051%=      5-min Rain = 0
KCO2 220928Z 12005KT 10/00 A3011 RMK A01 T01000004  RH  051%=      5-min Rain = 0
KCO2 220929Z 12005KT 10/00 A3011 RMK A01 T01000004  RH  051%=      5-min Rain = 0
KCO2 220930Z 12004KT 10/00 A3011 RMK A01 T01000004  RH  051%=      5-min Rain = 0
KCO2 220931Z 12005KT 10/00 A3011 RMK A01 T01000004  RH  051%=      5-min Rain = 0
KCO2 220932Z 12004KT 10/00 A3011 RMK A01 T01000004  RH  051%=      5-min Rain = 0
KCO2 220933Z 12004KT 10/00 A3011 RMK A01 T01000004  RH  051%=      5-min Rain = 0
KCO2 220934Z 12004KT 10/00 A3011 RMK A01 T01000004  RH  051%=      5-min Rain = 0
KCO2 220935Z 12004KT 10/00 A3011 RMK A01 T01000004  RH  051%=      5-min Rain = 0
KCO2 220936Z 12004KT 10/00 A3011 RMK A01 T01000004  RH  051%=      5-min Rain = 0
KCO2 220937Z 12004KT 10/00 A3011 RMK A01 T01000004  RH  051%=      5-min Rain = 0
KCO2 220938Z 12004KT 10/00 A3011 RMK A01 T00990004  RH  052%=      5-min Rain = 0
KCO2 220939Z 12004KT 10/00 A3011 RMK A01 T00990004  RH  052%=      5-min Rain = 0
KCO2 220940Z 11004KT 10/00 A3011 RMK A01 T00980004  RH  052%=      5-min Rain = 0
KCO2 220941Z 11004KT 10/00 A3011 RMK A01 T00980004  RH  052%=      5-min Rain = 0
KCO2 220942Z 11004KT 10/00 A3011 RMK A01 T00970004  RH  052%=      5-min Rain = 0
KCO2 220943Z 11004KT 10/00 A3011 RMK A01 T00970004  RH  052%=      5-min Rain = 0
KCO2 220944Z 11005KT 10/00 A301 RMK A01 T00960004  RH  053%=      5-min Rain = 0
KCO2 220945Z 11005KT 10/00 A301 RMK A01 T00970004  RH  052%=      5-min Rain = 0
KCO2 220946Z 11005KT 10/00 A301 RMK A01 T00960004  RH  052%=      5-min Rain = 0
KCO2 220947Z 11005KT 10/00 A301 RMK A01 T00960004  RH  052%=      5-min Rain = 0
KCO2 220948Z 10005KT 10/00 A301 RMK A01 T00960004  RH  053%=      5-min Rain = 0
KCO2 220949Z 10005KT 10/00 A301 RMK A01 T00960004  RH  053%=      5-min Rain = 0
KCO2 220950Z 10006KT 10/00 A301 RMK A01 T00960004  RH  053%=      5-min Rain = 0
KCO2 220951Z 10006KT 10/00 A301 RMK A01 T00960004  RH  053%=      5-min Rain = 0
KCO2 220952Z 10006KT 10/00 A301 RMK A01 T00960004  RH  053%=      5-min Rain = 0
KCO2 220953Z 10006KT 10/00 A301 RMK A01 T00960004  RH  053%=      5-min Rain = 0
KCO2 220954Z 10006KT 10/00 A301 RMK A01 T00960004  RH  053%=      5-min Rain = 0
KCO2 220955Z 11006KT 10/00 A301 RMK A01 T00960004  RH  053%=      5-min Rain = 0
KCO2 220956Z 11007KT 10/00 A301 RMK A01 T00960004  RH  052%=      5-min Rain = 0
KCO2 220957Z 11007KT 10/00 A301 RMK A01 T00970004  RH  052%=      5-min Rain = 0
KCO2 220958Z 11007KT 10/00 A301 RMK A01 T00970004  RH  052%=      5-min Rain = 0
KCO2 220959Z 11007KT 10/00 A301 RMK A01 T00970004  RH  052%=      5-min Rain = 0
KCO2 221000Z 11006KT 10/00 A301 RMK A01 T00970004  RH  052%=      5-min Rain = 0
KCO2 221001Z 11006KT 10/01 A301 RMK A01 T00980005  RH  052%=      5-min Rain = 0
KCO2 221002Z 11006KT 10/00 A301 RMK A01 T00980004  RH  052%=      5-min Rain = 0
KCO2 221003Z 11006KT 10/00 A301 RMK A01 T00980004  RH  052%=      5-min Rain = 0
KCO2 221004Z 11006KT 10/01 A301 RMK A01 T00980005  RH  052%=      5-min Rain = 0
KCO2 221005Z 11006KT 10/01 A301 RMK A01 T00980005  RH  052%=      5-min Rain = 0
KCO2 221006Z 11007KT 10/00 A301 RMK A01 T00970004  RH  052%=      5-min Rain = 0
KCO2 221007Z 10007KT 10/01 A301 RMK A01 T00970005  RH  052%=      5-min Rain = 0
KCO2 221008Z 11007KT 10/01 A3009 RMK A01 T00970005  RH  053%=      5-min Rain = 0
KCO2 221009Z 10007KT 10/01 A3009 RMK A01 T00980005  RH  053%=      5-min Rain = 0
KCO2 221010Z 10007KT 10/01 A3009 RMK A01 T00970005  RH  052%=      5-min Rain = 0
KCO2 221011Z 10007KT 10/00 A3009 RMK A01 T00970004  RH  052%=      5-min Rain = 0
KCO2 221012Z 10007KT 10/00 A3009 RMK A01 T00980004  RH  052%=      5-min Rain = 0
KCO2 221013Z 10007KT 10/00 A3009 RMK A01 T00980004  RH  052%=      5-min Rain = 0
KCO2 221014Z 10007KT 10/00 A3009 RMK A01 T00990004  RH  052%=      5-min Rain = 0
KCO2 221015Z 10007KT 10/00 A3009 RMK A01 T00990004  RH  052%=      5-min Rain = 0
KCO2 221016Z 10006KT 10/00 A3009 RMK A01 T00990004  RH  052%=      5-min Rain = 0
KCO2 221017Z 10006KT 10/01 A3009 RMK A01 T00990005  RH  052%=      5-min Rain = 0
KCO2 221018Z 10006KT 10/01 A3009 RMK A01 T00990005  RH  052%=      5-min Rain = 0
KCO2 221019Z 10006KT 10/01 A3009 RMK A01 T00980005  RH  052%=      5-min Rain = 0
KCO2 221020Z 10006KT 10/01 A3009 RMK A01 T00980005  RH  053%=      5-min Rain = 0
KCO2 221021Z 10006KT 10/01 A3009 RMK A01 T00970005  RH  053%=      5-min Rain = 0
KCO2 221022Z 10006KT 10/01 A3009 RMK A01 T00960005  RH  053%=      5-min Rain = 0
KCO2 221023Z 10006KT 10/01 A3009 RMK A01 T00950005  RH  053%=      5-min Rain = 0
KCO2 221024Z 10006KT 10/01 A3009 RMK A01 T00950005  RH  054%=      5-min Rain = 0
KCO2 221025Z 10006KT 09/01 A3009 RMK A01 T00940006  RH  054%=      5-min Rain = 0
KCO2 221026Z 10006KT 09/01 A3009 RMK A01 T00940006  RH  054%=      5-min Rain = 0
KCO2 221027Z 10006KT 09/01 A3009 RMK A01 T00940006  RH  054%=      5-min Rain = 0
KCO2 221028Z 10006KT 09/01 A3009 RMK A01 T00930006  RH  055%=      5-min Rain = 0
KCO2 221029Z 10006KT 09/01 A3009 RMK A01 T00930006  RH  055%=      5-min Rain = 0
KCO2 221030Z 10006KT 09/01 A3009 RMK A01 T00930007  RH  055%=      5-min Rain = 0
KCO2 221031Z 10006KT 09/01 A301 RMK A01 T00930007  RH  055%=      5-min Rain = 0
KCO2 221032Z 10006KT 09/01 A301 RMK A01 T00930007  RH  055%=      5-min Rain = 0
KCO2 221033Z 11006KT 09/01 A301 RMK A01 T00940007  RH  055%=      5-min Rain = 0
KCO2 221034Z 11006KT 09/01 A301 RMK A01 T00940007  RH  055%=      5-min Rain = 0
KCO2 221035Z 11006KT 09/01 A301 RMK A01 T00940007  RH  055%=      5-min Rain = 0
KCO2 221036Z 11006KT 09/01 A301 RMK A01 T00940007  RH  055%=      5-min Rain = 0
KCO2 221037Z 11006KT 09/01 A301 RMK A01 T00940007  RH  054%=      5-min Rain = 0
KCO2 221038Z 11006KT 09/01 A301 RMK A01 T00940007  RH  054%=      5-min Rain = 0
KCO2 221039Z 11006KT 10/01 A301 RMK A01 T00950007  RH  054%=      5-min Rain = 0
KCO2 221040Z 11006KT 10/01 A301 RMK A01 T00950007  RH  054%=      5-min Rain = 0
KCO2 221041Z 11006KT 10/01 A301 RMK A01 T00950007  RH  054%=      5-min Rain = 0
KCO2 221042Z 11006KT 10/01 A301 RMK A01 T00950008  RH  054%=      5-min Rain = 0
KCO2 221043Z 11006KT 10/01 A301 RMK A01 T00960007  RH  054%=      5-min Rain = 0
KCO2 221044Z 11006KT 10/01 A3011 RMK A01 T00960008  RH  054%=      5-min Rain = 0
KCO2 221045Z 11006KT 10/01 A3011 RMK A01 T00960007  RH  054%=      5-min Rain = 0
KCO2 221046Z 11006KT 10/01 A3011 RMK A01 T00960008  RH  054%=      5-min Rain = 0
KCO2 221047Z 11006KT 10/01 A3011 RMK A01 T00970008  RH  054%=      5-min Rain = 0
KCO2 221048Z 11006KT 10/01 A3011 RMK A01 T00960008  RH  054%=      5-min Rain = 0
KCO2 221049Z 11006KT 10/01 A3011 RMK A01 T00970008  RH  054%=      5-min Rain = 0
KCO2 221050Z 11006KT 10/01 A3011 RMK A01 T00970009  RH  054%=      5-min Rain = 0
KCO2 221051Z 10007KT 10/01 A3011 RMK A01 T00970009  RH  054%=      5-min Rain = 0
KCO2 221052Z 11007KT 10/01 A3011 RMK A01 T00970009  RH  054%=      5-min Rain = 0
KCO2 221053Z 11006KT 10/01 A3011 RMK A01 T00970009  RH  054%=      5-min Rain = 0
KCO2 221054Z 10007KT 10/01 A3011 RMK A01 T00970010  RH  054%=      5-min Rain = 0
KCO2 221055Z 10007KT 10/01 A3011 RMK A01 T00960009  RH  055%=      5-min Rain = 0
KCO2 221056Z 10007KT 10/01 A3011 RMK A01 T00960009  RH  055%=      5-min Rain = 0
KCO2 221057Z 10007KT 10/01 A3011 RMK A01 T00960010  RH  055%=      5-min Rain = 0
KCO2 221058Z 10007KT 10/01 A3011 RMK A01 T00960010  RH  055%=      5-min Rain = 0
KCO2 221059Z 10007KT 10/01 A3011 RMK A01 T00960010  RH  055%=      5-min Rain = 0
KCO2 221100Z 10007KT 10/01 A3011 RMK A01 T00960010  RH  055%=      5-min Rain = 0
KCO2 221101Z 10006KT 10/01 A3011 RMK A01 T00960010  RH  055%=      5-min Rain = 0
KCO2 221102Z 10006KT 10/01 A3011 RMK A01 T00960010  RH  055%=      5-min Rain = 0
KCO2 221103Z 10006KT 10/01 A3011 RMK A01 T00960010  RH  055%=      5-min Rain = 0
KCO2 221104Z 10006KT 10/01 A3011 RMK A01 T00960011  RH  055%=      5-min Rain = 0
KCO2 221105Z 10006KT 10/01 A3011 RMK A01 T00960011  RH  055%=      5-min Rain = 0
KCO2 221106Z 10006KT 10/01 A3011 RMK A01 T00950011  RH  056%=      5-min Rain = 0
KCO2 221107Z 10006KT 10/01 A3011 RMK A01 T00950011  RH  056%=      5-min Rain = 0
KCO2 221108Z 10006KT 10/01 A3011 RMK A01 T00950011  RH  056%=      5-min Rain = 0
KCO2 221109Z 10007KT 09/01 A3011 RMK A01 T00940011  RH  056%=      5-min Rain = 0
KCO2 221110Z 10007KT 09/01 A3011 RMK A01 T00940012  RH  056%=      5-min Rain = 0
KCO2 221111Z 10006KT 09/01 A3011 RMK A01 T00940011  RH  056%=      5-min Rain = 0
KCO2 221112Z 10006KT 09/01 A3011 RMK A01 T00940012  RH  056%=      5-min Rain = 0
KCO2 221113Z 10006KT 09/01 A3011 RMK A01 T00940011  RH  056%=      5-min Rain = 0
KCO2 221114Z 09006KT 10/01 A3011 RMK A01 T00950012  RH  056%=      5-min Rain = 0
KCO2 221115Z 09007KT 10/01 A3011 RMK A01 T00950012  RH  056%=      5-min Rain = 0
KCO2 221116Z 09007KT 10/01 A3011 RMK A01 T00950013  RH  057%=      5-min Rain = 0
KCO2 221117Z 09007KT 09/01 A3011 RMK A01 T00940012  RH  057%=      5-min Rain = 0
KCO2 221118Z 09007KT 09/01 A3011 RMK A01 T00940013  RH  057%=      5-min Rain = 0
KCO2 221119Z 09007KT 09/01 A3011 RMK A01 T00940013  RH  057%=      5-min Rain = 0
KCO2 221120Z 09007KT 09/01 A3011 RMK A01 T00930013  RH  057%=      5-min Rain = 0
KCO2 221121Z 09006KT 09/01 A3011 RMK A01 T00930014  RH  058%=      5-min Rain = 0
KCO2 221122Z 09006KT 09/01 A3011 RMK A01 T00920014  RH  058%=      5-min Rain = 0
KCO2 221123Z 09006KT 09/01 A3011 RMK A01 T00920014  RH  058%=      5-min Rain = 0
KCO2 221124Z 09006KT 09/02 A3011 RMK A01 T00910015  RH  059%=      5-min Rain = 0
KCO2 221125Z 09006KT 09/02 A3011 RMK A01 T00910015  RH  059%=      5-min Rain = 0
KCO2 221126Z 09006KT 09/02 A3011 RMK A01 T00910016  RH  059%=      5-min Rain = 0
KCO2 221127Z 09006KT 09/02 A3011 RMK A01 T00900016  RH  060%=      5-min Rain = 0
KCO2 221128Z 09006KT 09/02 A3011 RMK A01 T00900016  RH  060%=      5-min Rain = 0
KCO2 221129Z 09006KT 09/02 A3011 RMK A01 T00890016  RH  060%=      5-min Rain = 0
KCO2 221130Z 09006KT 09/02 A3011 RMK A01 T00890016  RH  060%=      5-min Rain = 0
KCO2 221131Z 09006KT 09/02 A3012 RMK A01 T00890016  RH  060%=      5-min Rain = 0
KCO2 221132Z 09006KT 09/02 A3012 RMK A01 T00890017  RH  060%=      5-min Rain = 0
KCO2 221133Z 09007KT 09/02 A3012 RMK A01 T00890017  RH  060%=      5-min Rain = 0
KCO2 221134Z 09007KT 09/02 A3012 RMK A01 T00890017  RH  060%=      5-min Rain = 0
KCO2 221135Z 09007KT 09/02 A3012 RMK A01 T00890017  RH  060%=      5-min Rain = 0
KCO2 221136Z 08007KT 09/02 A3012 RMK A01 T00900017  RH  060%=      5-min Rain = 0
KCO2 221137Z 08007KT 09/02 A3012 RMK A01 T00900018  RH  060%=      5-min Rain = 0
KCO2 221138Z 08007KT 09/02 A3012 RMK A01 T00900018  RH  060%=      5-min Rain = 0
KCO2 221139Z 09007KT 09/02 A3012 RMK A01 T00910018  RH  060%=      5-min Rain = 0
KCO2 221140Z 09007KT 09/02 A3012 RMK A01 T00910018  RH  060%=      5-min Rain = 0
KCO2 221141Z 09007KT 09/02 A3012 RMK A01 T00910019  RH  060%=      5-min Rain = 0
KCO2 221142Z 09007KT 09/02 A3012 RMK A01 T00910018  RH  060%=      5-min Rain = 0
KCO2 221143Z 09007KT 09/02 A3012 RMK A01 T00920018  RH  060%=      5-min Rain = 0
KCO2 221144Z 09007KT 09/02 A3012 RMK A01 T00920018  RH  060%=      5-min Rain = 0
KCO2 221145Z 09007KT 09/02 A3012 RMK A01 T00920019  RH  060%=      5-min Rain = 0
KCO2 221146Z 09007KT 09/02 A3012 RMK A01 T00930019  RH  060%=      5-min Rain = 0
KCO2 221147Z 09007KT 09/02 A3012 RMK A01 T00930019  RH  060%=      5-min Rain = 0
KCO2 221148Z 09007KT 09/02 A3012 RMK A01 T00930019  RH  060%=      5-min Rain = 0
KCO2 221149Z 10007KT 09/02 A3012 RMK A01 T00930019  RH  060%=      5-min Rain = 0
KCO2 221150Z 10007KT 09/02 A3013 RMK A01 T00940019  RH  059%=      5-min Rain = 0
KCO2 221151Z 10007KT 09/02 A3012 RMK A01 T00940018  RH  059%=      5-min Rain = 0
KCO2 221152Z 10007KT 09/02 A3013 RMK A01 T00940018  RH  059%=      5-min Rain = 0
KCO2 221153Z 10006KT 10/02 A3013 RMK A01 T00950018  RH  059%=      5-min Rain = 0
KCO2 221154Z 10006KT 10/02 A3013 RMK A01 T00950018  RH  059%=      5-min Rain = 0
KCO2 221155Z 09006KT 10/02 A3013 RMK A01 T00950018  RH  059%=      5-min Rain = 0
KCO2 221156Z 10006KT 10/02 A3013 RMK A01 T00950018  RH  059%=      5-min Rain = 0
KCO2 221157Z 10006KT 10/02 A3013 RMK A01 T00950018  RH  059%=      5-min Rain = 0
KCO2 221158Z 10005KT 10/02 A3013 RMK A01 T00950019  RH  059%=      5-min Rain = 0
KCO2 221159Z 10005KT 10/02 A3013 RMK A01 T00950019  RH  059%=      5-min Rain = 0
KCO2 221200Z 10005KT 10/02 A3014 RMK A01 T00950019  RH  059%=      5-min Rain = 0
KCO2 221201Z 10004KT 10/02 A3014 RMK A01 T00950018  RH  059%=      5-min Rain = 0
KCO2 221202Z 11004KT 10/02 A3014 RMK A01 T00950018  RH  059%=      5-min Rain = 0
KCO2 221203Z 10003KT 10/02 A3014 RMK A01 T00950018  RH  059%=      5-min Rain = 0
KCO2 221204Z 11003KT 10/02 A3014 RMK A01 T00950019  RH  059%=      5-min Rain = 0
KCO2 221205Z 11001KT 10/02 A3015 RMK A01 T00950019  RH  059%=      5-min Rain = 0
KCO2 221206Z 26001KT 10/02 A3015 RMK A01 T00960020  RH  059%=      5-min Rain = 0
KCO2 221207Z 27002KT 10/02 A3015 RMK A01 T00960022  RH  060%=      5-min Rain = 0
KCO2 221208Z 27002KT 10/02 A3015 RMK A01 T00950023  RH  061%=      5-min Rain = 0
KCO2 221209Z 26001KT 10/02 A3015 RMK A01 T00950023  RH  061%=      5-min Rain = 0
KCO2 221210Z 26002KT 10/02 A3015 RMK A01 T00950023  RH  061%=      5-min Rain = 0
KCO2 221211Z 26002KT 10/02 A3015 RMK A01 T00950023  RH  061%=      5-min Rain = 0
KCO2 221212Z 27002KT 10/02 A3015 RMK A01 T00950023  RH  061%=      5-min Rain = 0
KCO2 221213Z 27002KT 10/02 A3015 RMK A01 T00950024  RH  061%=      5-min Rain = 0
KCO2 221214Z 27002KT 10/02 A3015 RMK A01 T00950023  RH  061%=      5-min Rain = 0
KCO2 221215Z 25002KT 10/02 A3015 RMK A01 T00950024  RH  061%=      5-min Rain = 0
KCO2 221216Z 25002KT 10/02 A3015 RMK A01 T00950024  RH  061%=      5-min Rain = 0
KCO2 221217Z 25002KT 10/03 A3015 RMK A01 T00960025  RH  061%=      5-min Rain = 0
KCO2 221218Z 25003KT 10/03 A3015 RMK A01 T00960025  RH  062%=      5-min Rain = 0
KCO2 221219Z 25003KT 10/03 A3015 RMK A01 T00960026  RH  062%=      5-min Rain = 0
KCO2 221220Z 25002KT 10/03 A3015 RMK A01 T00960026  RH  062%=      5-min Rain = 0
KCO2 221221Z 25002KT 10/03 A3015 RMK A01 T00960026  RH  062%=      5-min Rain = 0
KCO2 221222Z 25002KT 10/03 A3015 RMK A01 T00950025  RH  062%=      5-min Rain = 0
KCO2 221223Z 26002KT 10/03 A3015 RMK A01 T00960026  RH  062%=      5-min Rain = 0
KCO2 221224Z 24002KT 10/03 A3015 RMK A01 T00950026  RH  062%=      5-min Rain = 0
KCO2 221225Z 25002KT 10/03 A3015 RMK A01 T00950025  RH  062%=      5-min Rain = 0
KCO2 221226Z 26002KT 10/03 A3015 RMK A01 T00960026  RH  062%=      5-min Rain = 0
KCO2 221227Z 25003KT 10/03 A3015 RMK A01 T00960026  RH  062%=      5-min Rain = 0
KCO2 221228Z 24003KT 10/03 A3015 RMK A01 T00960026  RH  062%=      5-min Rain = 0
KCO2 221229Z 25003KT 10/03 A3015 RMK A01 T00950026  RH  062%=      5-min Rain = 0
KCO2 221230Z 25003KT 10/03 A3015 RMK A01 T00950026  RH  062%=      5-min Rain = 0
KCO2 221231Z 25003KT 10/03 A3015 RMK A01 T00950026  RH  062%=      5-min Rain = 0
KCO2 221232Z 26003KT 10/03 A3015 RMK A01 T00950026  RH  062%=      5-min Rain = 0
KCO2 221233Z 26003KT 10/03 A3015 RMK A01 T00950027  RH  062%=      5-min Rain = 0
KCO2 221234Z 27003KT 09/03 A3015 RMK A01 T00940026  RH  062%=      5-min Rain = 0
KCO2 221235Z 27003KT 09/03 A3016 RMK A01 T00940026  RH  062%=      5-min Rain = 0
KCO2 221236Z 26003KT 09/03 A3016 RMK A01 T00940025  RH  062%=      5-min Rain = 0
KCO2 221237Z 27003KT 09/03 A3016 RMK A01 T00940025  RH  062%=      5-min Rain = 0
KCO2 221238Z 27003KT 09/03 A3016 RMK A01 T00940025  RH  062%=      5-min Rain = 0
KCO2 221239Z 27002KT 09/02 A3016 RMK A01 T00940024  RH  062%=      5-min Rain = 0
KCO2 221240Z 27002KT 09/02 A3016 RMK A01 T00940024  RH  061%=      5-min Rain = 0
KCO2 221241Z 27002KT 09/02 A3016 RMK A01 T00940024  RH  061%=      5-min Rain = 0
KCO2 221242Z 27002KT 09/02 A3016 RMK A01 T00940024  RH  061%=      5-min Rain = 0
KCO2 221243Z 26002KT 10/03 A3016 RMK A01 T00950025  RH  062%=      5-min Rain = 0
KCO2 221244Z 27002KT 10/02 A3016 RMK A01 T00950024  RH  061%=      5-min Rain = 0
KCO2 221245Z 28002KT 10/03 A3016 RMK A01 T00950025  RH  061%=      5-min Rain = 0
KCO2 221246Z 27002KT 10/03 A3016 RMK A01 T00950025  RH  062%=      5-min Rain = 0
KCO2 221247Z 27001KT 10/03 A3016 RMK A01 T00950025  RH  062%=      5-min Rain = 0
KCO2 221248Z 28001KT 10/03 A3016 RMK A01 T00950025  RH  062%=      5-min Rain = 0
KCO2 221249Z 28001KT 10/03 A3016 RMK A01 T00960026  RH  062%=      5-min Rain = 0
KCO2 221250Z 28001KT 10/03 A3016 RMK A01 T00960027  RH  062%=      5-min Rain = 0
KCO2 221251Z 28001KT 10/03 A3015 RMK A01 T00960026  RH  062%=      5-min Rain = 0
KCO2 221252Z 28000KT 10/03 A3015 RMK A01 T00960026  RH  062%=      5-min Rain = 0
KCO2 221253Z 28000KT 10/03 A3015 RMK A01 T00950026  RH  062%=      5-min Rain = 0
KCO2 221254Z 28000KT 10/03 A3015 RMK A01 T00960026  RH  062%=      5-min Rain = 0
KCO2 221255Z 00000KT 10/02 A3015 RMK A01 T00960023  RH  061%=      5-min Rain = 0
KCO2 221256Z 00000KT 10/02 A3015 RMK A01 T00960022  RH  060%=      5-min Rain = 0
KCO2 221257Z 00000KT 10/02 A3015 RMK A01 T00960023  RH  060%=      5-min Rain = 0
KCO2 221258Z 00000KT 10/02 A3015 RMK A01 T00960023  RH  060%=      5-min Rain = 0
KCO2 221259Z 00000KT 10/02 A3015 RMK A01 T00970023  RH  060%=      5-min Rain = 0
KCO2 221300Z 00000KT 10/02 A3015 RMK A01 T00970024  RH  060%=      5-min Rain = 0
KCO2 221301Z 00000KT 10/02 A3015 RMK A01 T00970023  RH  060%=      5-min Rain = 0
KCO2 221302Z 28000KT 10/02 A3015 RMK A01 T00980024  RH  060%=      5-min Rain = 0
KCO2 221303Z 28001KT 10/02 A3015 RMK A01 T00980024  RH  060%=      5-min Rain = 0
KCO2 221304Z 15002KT 10/02 A3015 RMK A01 T00980024  RH  060%=      5-min Rain = 0
KCO2 221305Z 14002KT 10/02 A3015 RMK A01 T00990023  RH  059%=      5-min Rain = 0
KCO2 221306Z 14002KT 10/02 A3015 RMK A01 T00990022  RH  059%=      5-min Rain = 0
KCO2 221307Z 14003KT 10/02 A3015 RMK A01 T01000023  RH  059%=      5-min Rain = 0
KCO2 221308Z 13003KT 10/03 A3015 RMK A01 T01000025  RH  059%=      5-min Rain = 0
KCO2 221309Z 13002KT 10/03 A3014 RMK A01 T01000027  RH  060%=      5-min Rain = 0
KCO2 221310Z 14002KT 10/03 A3014 RMK A01 T01000028  RH  061%=      5-min Rain = 0
KCO2 221311Z 14002KT 10/03 A3014 RMK A01 T01000027  RH  061%=      5-min Rain = 0
KCO2 221312Z 13003KT 10/03 A3014 RMK A01 T01000028  RH  061%=      5-min Rain = 0
KCO2 221313Z 12003KT 10/03 A3014 RMK A01 T01000028  RH  061%=      5-min Rain = 0
KCO2 221314Z 13003KT 10/03 A3014 RMK A01 T01000028  RH  061%=      5-min Rain = 0
KCO2 221315Z 13004KT 10/03 A3014 RMK A01 T01000028  RH  061%=      5-min Rain = 0
KCO2 221316Z 13004KT 10/03 A3014 RMK A01 T01000029  RH  061%=      5-min Rain = 0
KCO2 221317Z 13004KT 10/03 A3014 RMK A01 T01000029  RH  061%=      5-min Rain = 0
KCO2 221318Z 11005KT 10/03 A3014 RMK A01 T01000029  RH  061%=      5-min Rain = 0
KCO2 221319Z 11005KT 10/03 A3014 RMK A01 T01000029  RH  061%=      5-min Rain = 0
KCO2 221320Z 11005KT 10/03 A3014 RMK A01 T01010029  RH  061%=      5-min Rain = 0
KCO2 221321Z 10005KT 10/03 A3014 RMK A01 T01020031  RH  061%=      5-min Rain = 0
KCO2 221322Z 10005KT 10/03 A3014 RMK A01 T01020032  RH  062%=      5-min Rain = 0
KCO2 221323Z 10005KT 10/03 A3014 RMK A01 T01030032  RH  062%=      5-min Rain = 0
KCO2 221324Z 11005KT 10/03 A3015 RMK A01 T01020032  RH  062%=      5-min Rain = 0
KCO2 221325Z 11005KT 10/03 A3015 RMK A01 T01020033  RH  062%=      5-min Rain = 0
KCO2 221326Z 11004KT 10/03 A3015 RMK A01 T01020034  RH  062%=      5-min Rain = 0
KCO2 221327Z 11005KT 10/03 A3015 RMK A01 T01020034  RH  063%=      5-min Rain = 0
KCO2 221328Z 11005KT 10/03 A3015 RMK A01 T01020033  RH  062%=      5-min Rain = 0
KCO2 221329Z 11005KT 10/03 A3015 RMK A01 T01030033  RH  062%=      5-min Rain = 0
KCO2 221330Z 11005KT 10/03 A3015 RMK A01 T01030034  RH  062%=      5-min Rain = 0
KCO2 221331Z 11005KT 10/03 A3015 RMK A01 T01030034  RH  062%=      5-min Rain = 0
KCO2 221332Z 12005KT 10/03 A3015 RMK A01 T01040034  RH  062%=      5-min Rain = 0
KCO2 221333Z 12005KT 10/03 A3015 RMK A01 T01040034  RH  062%=      5-min Rain = 0
KCO2 221334Z 12006KT 11/03 A3015 RMK A01 T01050034  RH  061%=      5-min Rain = 0
KCO2 221335Z 12006KT 11/03 A3015 RMK A01 T01050034  RH  061%=      5-min Rain = 0
KCO2 221336Z 12006KT 11/03 A3015 RMK A01 T01060033  RH  061%=      5-min Rain = 0
KCO2 221337Z 12006KT 11/03 A3015 RMK A01 T01070034  RH  061%=      5-min Rain = 0
KCO2 221338Z 12006KT 11/03 A3015 RMK A01 T01060033  RH  060%=      5-min Rain = 0
KCO2 221339Z 12006KT 11/03 A3014 RMK A01 T01070033  RH  060%=      5-min Rain = 0
KCO2 221340Z 12006KT 11/03 A3014 RMK A01 T01070033  RH  060%=      5-min Rain = 0
KCO2 221341Z 12006KT 11/03 A3014 RMK A01 T01070033  RH  060%=      5-min Rain = 0
KCO2 221342Z 12006KT 11/03 A3014 RMK A01 T01070034  RH  060%=      5-min Rain = 0
KCO2 221343Z 13006KT 11/03 A3014 RMK A01 T01070034  RH  061%=      5-min Rain = 0
KCO2 221344Z 12006KT 11/04 A3014 RMK A01 T01070035  RH  061%=      5-min Rain = 0
KCO2 221345Z 12005KT 11/04 A3014 RMK A01 T01070035  RH  061%=      5-min Rain = 0
KCO2 221346Z 12006KT 11/04 A3014 RMK A01 T01070036  RH  062%=      5-min Rain = 0
KCO2 221347Z 12005KT 11/04 A3014 RMK A01 T01070036  RH  062%=      5-min Rain = 0
KCO2 221348Z 12006KT 11/04 A3014 RMK A01 T01070037  RH  062%=      5-min Rain = 0
KCO2 221349Z 12006KT 11/04 A3014 RMK A01 T01070037  RH  062%=      5-min Rain = 0
KCO2 221350Z 12006KT 11/04 A3014 RMK A01 T01070038  RH  062%=      5-min Rain = 0
KCO2 221351Z 13006KT 11/04 A3014 RMK A01 T01070038  RH  062%=      5-min Rain = 0
KCO2 221352Z 13007KT 11/04 A3014 RMK A01 T01070037  RH  062%=      5-min Rain = 0
KCO2 221353Z 12007KT 11/04 A3014 RMK A01 T01070037  RH  062%=      5-min Rain = 0
KCO2 221354Z 12008KT 11/04 A3014 RMK A01 T01080037  RH  062%=      5-min Rain = 0
KCO2 221355Z 12008KT 11/04 A3014 RMK A01 T01080037  RH  062%=      5-min Rain = 0
KCO2 221356Z 12008KT 11/04 A3014 RMK A01 T01080037  RH  061%=      5-min Rain = 0
KCO2 221357Z 12007KT 11/04 A3014 RMK A01 T01080037  RH  061%=      5-min Rain = 0
KCO2 221358Z 12007KT 11/04 A3014 RMK A01 T01080037  RH  062%=      5-min Rain = 0
KCO2 221359Z 12007KT 11/04 A3014 RMK A01 T01080038  RH  062%=      5-min Rain = 0
KCO2 221400Z 12007KT 11/04 A3014 RMK A01 T01080038  RH  062%=      5-min Rain = 0
KCO2 221401Z 11007KT 11/04 A3014 RMK A01 T01080039  RH  062%=      5-min Rain = 0
KCO2 221402Z 11007KT 11/04 A3014 RMK A01 T01080040  RH  062%=      5-min Rain = 0
KCO2 221403Z 11008KT 11/04 A3014 RMK A01 T01090040  RH  063%=      5-min Rain = 0
KCO2 221404Z 11008KT 11/04 A3014 RMK A01 T01090041  RH  063%=      5-min Rain = 0
KCO2 221405Z 11007KT 11/04 A3014 RMK A01 T01090041  RH  063%=      5-min Rain = 0
KCO2 221406Z 11006KT 11/04 A3014 RMK A01 T01090041  RH  063%=      5-min Rain = 0
KCO2 221407Z 11006KT 11/04 A3014 RMK A01 T01090041  RH  063%=      5-min Rain = 0
KCO2 221408Z 11006KT 11/04 A3014 RMK A01 T01090042  RH  063%=      5-min Rain = 0
KCO2 221409Z 10006KT 11/04 A3013 RMK A01 T01090043  RH  063%=      5-min Rain = 0
KCO2 221410Z 10006KT 11/04 A3013 RMK A01 T01090043  RH  064%=      5-min Rain = 0
KCO2 221411Z 10007KT 11/04 A3013 RMK A01 T01090043  RH  064%=      5-min Rain = 0
KCO2 221412Z 09007KT 11/04 A3013 RMK A01 T01090043  RH  064%=      5-min Rain = 0
KCO2 221413Z 09007KT 11/04 A3013 RMK A01 T01090043  RH  064%=      5-min Rain = 0
KCO2 221414Z 09007KT 11/04 A3013 RMK A01 T01090043  RH  064%=      5-min Rain = 0
KCO2 221415Z 09007KT 11/04 A3013 RMK A01 T01100044  RH  064%=      5-min Rain = 0
KCO2 221416Z 09007KT 11/04 A3013 RMK A01 T01100044  RH  064%=      5-min Rain = 0
KCO2 221417Z 09007KT 11/05 A3013 RMK A01 T01100045  RH  064%=      5-min Rain = 0
KCO2 221418Z 09007KT 11/05 A3013 RMK A01 T01110045  RH  064%=      5-min Rain = 0
KCO2 221419Z 10006KT 11/05 A3013 RMK A01 T01110045  RH  064%=      5-min Rain = 0
KCO2 221420Z 10006KT 11/05 A3013 RMK A01 T01110046  RH  064%=      5-min Rain = 0
KCO2 221421Z 10005KT 11/05 A3013 RMK A01 T01110047  RH  064%=      5-min Rain = 0
KCO2 221422Z 10005KT 11/05 A3013 RMK A01 T01120047  RH  064%=      5-min Rain = 0
KCO2 221423Z 10005KT 11/05 A3013 RMK A01 T01120047  RH  064%=      5-min Rain = 0
KCO2 221424Z 10006KT 11/05 A3014 RMK A01 T01130048  RH  064%=      5-min Rain = 0
KCO2 221425Z 11005KT 11/05 A3014 RMK A01 T01130048  RH  064%=      5-min Rain = 0
KCO2 221426Z 11005KT 11/05 A3014 RMK A01 T01130048  RH  064%=      5-min Rain = 0
KCO2 221427Z 11004KT 11/05 A3014 RMK A01 T01140049  RH  064%=      5-min Rain = 0
KCO2 221428Z 12004KT 11/05 A3014 RMK A01 T01140049  RH  064%=      5-min Rain = 0
KCO2 221429Z 12005KT 11/05 A3014 RMK A01 T01140049  RH  064%=      5-min Rain = 0
KCO2 221430Z 12005KT 11/05 A3014 RMK A01 T01140049  RH  064%=      5-min Rain = 0
KCO2 221431Z 12005KT 11/05 A3014 RMK A01 T01140050  RH  064%=      5-min Rain = 0
KCO2 221432Z 12005KT 12/05 A3014 RMK A01 T01150050  RH  064%=      5-min Rain = 0
KCO2 221433Z 12005KT 12/05 A3014 RMK A01 T01150051  RH  065%=      5-min Rain = 0
KCO2 221434Z 12005KT 12/05 A3014 RMK A01 T01150051  RH  065%=      5-min Rain = 0
KCO2 221435Z 12005KT 12/05 A3014 RMK A01 T01160051  RH  065%=      5-min Rain = 0
KCO2 221436Z 12005KT 12/05 A3014 RMK A01 T01160052  RH  065%=      5-min Rain = 0
KCO2 221437Z 13005KT 12/05 A3014 RMK A01 T01160053  RH  065%=      5-min Rain = 0
KCO2 221438Z 13005KT 12/05 A3014 RMK A01 T01160053  RH  065%=      5-min Rain = 0
KCO2 221439Z 12004KT 12/05 A3014 RMK A01 T01170053  RH  065%=      5-min Rain = 0
KCO2 221440Z 12004KT 12/05 A3014 RMK A01 T01170054  RH  065%=      5-min Rain = 0
KCO2 221441Z 12004KT 12/05 A3014 RMK A01 T01170054  RH  065%=      5-min Rain = 0
KCO2 221442Z 13005KT 12/06 A3014 RMK A01 T01180055  RH  065%=      5-min Rain = 0
KCO2 221443Z 13005KT 12/06 A3014 RMK A01 T01170055  RH  065%=      5-min Rain = 0
KCO2 221444Z 13005KT 12/06 A3014 RMK A01 T01180055  RH  066%=      5-min Rain = 0
KCO2 221445Z 13004KT 12/06 A3014 RMK A01 T01180056  RH  066%=      5-min Rain = 0
KCO2 221446Z 13004KT 12/06 A3014 RMK A01 T01180056  RH  066%=      5-min Rain = 0
KCO2 221447Z 13004KT 12/06 A3014 RMK A01 T01190056  RH  066%=      5-min Rain = 0
KCO2 221448Z 13004KT 12/06 A3014 RMK A01 T01190057  RH  066%=      5-min Rain = 0
KCO2 221449Z 14004KT 12/06 A3015 RMK A01 T01190057  RH  066%=      5-min Rain = 0
KCO2 221450Z 14004KT 12/06 A3015 RMK A01 T01190057  RH  066%=      5-min Rain = 0
KCO2 221451Z 14004KT 12/06 A3015 RMK A01 T01190057  RH  066%=      5-min Rain = 0
KCO2 221452Z 15004KT 12/06 A3015 RMK A01 T01190057  RH  066%=      5-min Rain = 0
KCO2 221453Z 16003KT 12/06 A3015 RMK A01 T01190057  RH  066%=      5-min Rain = 0
KCO2 221454Z 17003KT 12/06 A3015 RMK A01 T01200058  RH  066%=      5-min Rain = 0
KCO2 221455Z 17004KT 12/06 A3015 RMK A01 T01200058  RH  066%=      5-min Rain = 0
KCO2 221456Z 17004KT 12/06 A3015 RMK A01 T01200058  RH  066%=      5-min Rain = 0
KCO2 221457Z 17004KT 12/06 A3015 RMK A01 T01200058  RH  066%=      5-min Rain = 0
KCO2 221458Z 16004KT 12/06 A3015 RMK A01 T01200059  RH  066%=      5-min Rain = 0
KCO2 221459Z 16005KT 12/06 A3015 RMK A01 T01210059  RH  066%=      5-min Rain = 0
KCO2 221500Z 17004KT 12/06 A3015 RMK A01 T01210059  RH  066%=      5-min Rain = 0
KCO2 221501Z 17003KT 12/06 A3015 RMK A01 T01210059  RH  066%=      5-min Rain = 0
KCO2 221502Z 18003KT 12/06 A3016 RMK A01 T01210059  RH  066%=      5-min Rain = 0
KCO2 221503Z 17004KT 12/06 A3016 RMK A01 T01210059  RH  066%=      5-min Rain = 0
KCO2 221504Z 18004KT 12/06 A3016 RMK A01 T01210059  RH  066%=      5-min Rain = 0
KCO2 221505Z 17004KT 12/06 A3016 RMK A01 T01210059  RH  066%=      5-min Rain = 0
KCO2 221506Z 18004KT 12/06 A3016 RMK A01 T01210059  RH  066%=      5-min Rain = 0
KCO2 221507Z 18005KT 12/06 A3016 RMK A01 T01210059  RH  066%=      5-min Rain = 0
KCO2 221508Z 17005KT 12/06 A3016 RMK A01 T01210059  RH  066%=      5-min Rain = 0
KCO2 221509Z 18005KT 12/06 A3016 RMK A01 T01210059  RH  066%=      5-min Rain = 0
KCO2 221510Z 18005KT 12/06 A3016 RMK A01 T01200059  RH  066%=      5-min Rain = 0
KCO2 221511Z 18005KT 12/06 A3016 RMK A01 T01200059  RH  066%=      5-min Rain = 0
KCO2 221512Z 17005KT 12/06 A3016 RMK A01 T01200059  RH  066%=      5-min Rain = 0
KCO2 221513Z 17006KT 12/06 A3016 RMK A01 T01200059  RH  066%=      5-min Rain = 0
KCO2 221514Z 17006KT 12/06 A3016 RMK A01 T01200059  RH  066%=      5-min Rain = 0
KCO2 221515Z 17006KT 12/06 A3016 RMK A01 T01200059  RH  066%=      5-min Rain = 0
KCO2 221516Z 17005KT 12/06 A3016 RMK A01 T01190059  RH  066%=      5-min Rain = 0
KCO2 221517Z 17005KT 12/06 A3016 RMK A01 T01200059  RH  067%=      5-min Rain = 0
KCO2 221518Z 17006KT 12/06 A3017 RMK A01 T01190059  RH  067%=      5-min Rain = 0
KCO2 221519Z 17006KT 12/06 A3017 RMK A01 T01200059  RH  067%=      5-min Rain = 0
KCO2 221520Z 18005KT 12/06 A3017 RMK A01 T01190060  RH  067%=      5-min Rain = 0
KCO2 221521Z 18005KT 12/06 A3017 RMK A01 T01190060  RH  067%=      5-min Rain = 0
KCO2 221522Z 17005KT 12/06 A3017 RMK A01 T01190060  RH  067%=      5-min Rain = 0
KCO2 221523Z 18005KT 12/06 A3017 RMK A01 T01190060  RH  067%=      5-min Rain = 0
KCO2 221524Z 18005KT 12/06 A3017 RMK A01 T01190060  RH  067%=      5-min Rain = 0
KCO2 221525Z 19006KT 12/06 A3018 RMK A01 T01200061  RH  067%=      5-min Rain = 0
KCO2 221526Z 19005KT 12/06 A3018 RMK A01 T01200061  RH  067%=      5-min Rain = 0
KCO2 221527Z 20005KT 12/06 A3018 RMK A01 T01210062  RH  067%=      5-min Rain = 0
KCO2 221528Z 20005KT 12/06 A3018 RMK A01 T01210062  RH  067%=      5-min Rain = 0
KCO2 221529Z 20005KT 12/06 A3018 RMK A01 T01210062  RH  067%=      5-min Rain = 0
KCO2 221530Z 20005KT 12/06 A3018 RMK A01 T01210063  RH  068%=      5-min Rain = 0
KCO2 221531Z 21005KT 12/06 A3018 RMK A01 T01210063  RH  068%=      5-min Rain = 0
KCO2 221532Z 21005KT 12/06 A3018 RMK A01 T01210064  RH  068%=      5-min Rain = 0
KCO2 221533Z 21005KT 12/06 A3018 RMK A01 T01220064  RH  068%=      5-min Rain = 0
KCO2 221534Z 21006KT 12/07 A3018 RMK A01 T01220065  RH  068%=      5-min Rain = 0
KCO2 221535Z 21006KT 12/07 A3018 RMK A01 T01230065  RH  068%=      5-min Rain = 0
KCO2 221536Z 21006KT 12/07 A3018 RMK A01 T01230065  RH  068%=      5-min Rain = 0
KCO2 221537Z 20006KT 12/07 A3018 RMK A01 T01230066  RH  068%=      5-min Rain = 0
KCO2 221538Z 19005KT 12/07 A3018 RMK A01 T01230066  RH  068%=      5-min Rain = 0
KCO2 221539Z 20006KT 12/07 A3018 RMK A01 T01230066  RH  068%=      5-min Rain = 0
KCO2 221540Z 20005KT 12/07 A3018 RMK A01 T01230067  RH  068%=      5-min Rain = 0
KCO2 221541Z 20005KT 12/07 A3018 RMK A01 T01230067  RH  068%=      5-min Rain = 0
KCO2 221542Z 20005KT 12/07 A3018 RMK A01 T01240067  RH  068%=      5-min Rain = 0
KCO2 221543Z 20005KT 12/07 A3017 RMK A01 T01240068  RH  069%=      5-min Rain = 0
KCO2 221544Z 20005KT 12/07 A3017 RMK A01 T01240068  RH  069%=      5-min Rain = 0
KCO2 221545Z 19006KT 12/07 A3017 RMK A01 T01240068  RH  069%=      5-min Rain = 0
KCO2 221546Z 19005KT 12/07 A3017 RMK A01 T01240069  RH  069%=      5-min Rain = 0
KCO2 221547Z 18005KT 12/07 A3017 RMK A01 T01240070  RH  070%=      5-min Rain = 0
KCO2 221548Z 18005KT 12/07 A3017 RMK A01 T01240071  RH  070%=      5-min Rain = 0
KCO2 221549Z 18004KT 12/07 A3017 RMK A01 T01240072  RH  071%=      5-min Rain = 0
KCO2 221550Z 17004KT 12/07 A3017 RMK A01 T01230074  RH  072%=      5-min Rain = 0
KCO2 221551Z 16005KT 12/08 A3017 RMK A01 T01230075  RH  073%=      5-min Rain = 0
KCO2 221552Z 16006KT 12/08 A3017 RMK A01 T01230076  RH  073%=      5-min Rain = 0
KCO2 221553Z 15006KT 12/08 A3017 RMK A01 T01230076  RH  073%=      5-min Rain = 0
KCO2 221554Z 15006KT 12/08 A3017 RMK A01 T01230078  RH  074%=      5-min Rain = 0
KCO2 221555Z 15006KT 12/08 A3017 RMK A01 T01230079  RH  075%=      5-min Rain = 0
KCO2 221556Z 16005KT 12/08 A3017 RMK A01 T01230080  RH  075%=      5-min Rain = 0
KCO2 221557Z 16006KT 12/08 A3017 RMK A01 T01230080  RH  075%=      5-min Rain = 0
KCO2 221558Z 16007KT 12/08 A3017 RMK A01 T01220081  RH  076%=      5-min Rain = 0
KCO2 221559Z 16007KT 12/08 A3017 RMK A01 T01220081  RH  076%=      5-min Rain = 0
KCO2 221600Z 16008KT 12/08 A3017 RMK A01 T01220080  RH  076%=      5-min Rain = 0
KCO2 221601Z 16007KT 12/08 A3017 RMK A01 T01220080  RH  075%=      5-min Rain = 0
KCO2 221602Z 16007KT 12/08 A3017 RMK A01 T01220080  RH  076%=      5-min Rain = 0
KCO2 221603Z 16007KT 12/08 A3017 RMK A01 T01210080  RH  076%=      5-min Rain = 0
KCO2 221604Z 15006KT 12/08 A3017 RMK A01 T01220082  RH  076%=      5-min Rain = 0
KCO2 221605Z 14006KT 12/08 A3016 RMK A01 T01210084  RH  078%=      5-min Rain = 0
KCO2 221606Z 13007KT 12/09 A3016 RMK A01 T01210085  RH  079%=      5-min Rain = 0
KCO2 221607Z 13008KT 12/09 A3016 RMK A01 T01200087  RH  080%=      5-min Rain = 0
KCO2 221608Z 13008KT 12/09 A3015 RMK A01 T01190086  RH  080%=      5-min Rain = 0
KCO2 221609Z 13008KT 12/09 A3015 RMK A01 T01180086  RH  081%=      5-min Rain = 0
KCO2 221610Z 13009KT 12/09 A3015 RMK A01 T01170088  RH  083%=      5-min Rain = 0
KCO2 221611Z 12009KT 12/09 A3014 RMK A01 T01160088  RH  083%=      5-min Rain = 0
KCO2 221612Z 12010KT 12/09 A3014 RMK A01 T01150088  RH  083%=      5-min Rain = 0
KCO2 221613Z 12009KT 12/09 A3014 RMK A01 T01150088  RH  083%=      5-min Rain = 0
KCO2 221614Z 12009KT 11/09 A3014 RMK A01 T01140088  RH  084%=      5-min Rain = 0
KCO2 221615Z 13009KT 11/09 A3014 RMK A01 T01130088  RH  084%=      5-min Rain = 0
KCO2 221616Z 13009KT 11/09 A3014 RMK A01 T01130088  RH  084%=      5-min Rain = 0
KCO2 221617Z 14008KT 11/09 A3014 RMK A01 T01130088  RH  084%=      5-min Rain = 0
KCO2 221618Z 14008KT 11/09 A3015 RMK A01 T01130088  RH  084%=      5-min Rain = 0
KCO2 221619Z 13009KT 11/09 A3014 RMK A01 T01140088  RH  084%=      5-min Rain = 0
KCO2 221620Z 13009KT 11/09 A3014 RMK A01 T01130089  RH  085%=      5-min Rain = 0
KCO2 221621Z 12010KT 11/09 A3013 RMK A01 T01130090  RH  086%=      5-min Rain = 0
KCO2 221622Z 12011KT 11/09 A3012 RMK A01 T01130091  RH  086%=      5-min Rain = 0
KCO2 221623Z 11013KT 11/09 A3011 RMK A01 T01130092  RH  087%=      5-min Rain = 0
KCO2 221624Z 11014KT 11/09 A301 RMK A01 T01130093  RH  087%=      5-min Rain = 0.01
KCO2 221625Z 11017KT 11/09 A3009 RMK A01 T01130094  RH  088%=      5-min Rain = 0
KCO2 221626Z 12018KT 11/10 A3008 RMK A01 T01140095  RH  088%=      5-min Rain = 0
KCO2 221627Z 12019KT 11/09 A3007 RMK A01 T01130094  RH  088%=      5-min Rain = 0
KCO2 221628Z 12018KT 11/09 A3007 RMK A01 T01130094  RH  088%=      5-min Rain = 0
KCO2 221629Z 12017KT 11/10 A3007 RMK A01 T01130095  RH  089%=      5-min Rain = 0
KCO2 221630Z 12015KT 12/10 A3008 RMK A01 T01150097  RH  089%=      5-min Rain = 0
KCO2 221631Z 12012KT 12/10 A3009 RMK A01 T01150098  RH  089%=      5-min Rain = 0
KCO2 221632Z 12012KT 12/10 A3009 RMK A01 T01160098  RH  089%=      5-min Rain = 0
KCO2 221633Z 12012KT 12/10 A3009 RMK A01 T01160098  RH  089%=      5-min Rain = 0
KCO2 221634Z 12010KT 12/10 A3009 RMK A01 T01170098  RH  088%=      5-min Rain = 0
KCO2 221635Z 12009KT 12/10 A3009 RMK A01 T01170099  RH  089%=      5-min Rain = 0
KCO2 221636Z 12009KT 12/10 A3009 RMK A01 T01170100  RH  089%=      5-min Rain = 0
KCO2 221637Z 12009KT 12/10 A3009 RMK A01 T01180101  RH  090%=      5-min Rain = 0
KCO2 221638Z 12009KT 12/10 A3009 RMK A01 T01180102  RH  090%=      5-min Rain = 0
KCO2 221639Z 12008KT 12/10 A3009 RMK A01 T01190103  RH  090%=      5-min Rain = 0
KCO2 221640Z 11009KT 12/11 A3008 RMK A01 T01200105  RH  090%=      5-min Rain = 0
KCO2 221641Z 12008KT 12/11 A3008 RMK A01 T01220107  RH  090%=      5-min Rain = 0
KCO2 221642Z 12008KT 12/11 A3008 RMK A01 T01240109  RH  090%=      5-min Rain = 0
KCO2 221643Z 12009KT 13/11 A3008 RMK A01 T01270110  RH  090%=      5-min Rain = 0
KCO2 221644Z 12008KT 13/11 A3008 RMK A01 T01290113  RH  090%=      5-min Rain = 0
KCO2 221645Z 12011KT 13/12 A3008 RMK A01 T01320115  RH  089%=      5-min Rain = 0
KCO2 221646Z 12013KT 14/12 A3008 RMK A01 T01360116  RH  088%=      5-min Rain = 0
KCO2 221647Z 13012KT 14/12 A3008 RMK A01 T01400116  RH  085%=      5-min Rain = 0
KCO2 221648Z 12011KT 14/12 A3008 RMK A01 T01420115  RH  084%=      5-min Rain = 0
KCO2 221649Z 12010KT 14/12 A3008 RMK A01 T01430116  RH  084%=      5-min Rain = 0
KCO2 221650Z 12011KT 14/12 A3008 RMK A01 T01430115  RH  083%=      5-min Rain = 0
KCO2 221651Z 12010KT 14/11 A3008 RMK A01 T01420114  RH  083%=      5-min Rain = 0
KCO2 221652Z 12008KT 14/11 A3008 RMK A01 T01410114  RH  084%=      5-min Rain = 0
KCO2 221653Z 12008KT 14/12 A3008 RMK A01 T01410115  RH  085%=      5-min Rain = 0
KCO2 221654Z 11011KT 14/12 A3008 RMK A01 T01410115  RH  085%=      5-min Rain = 0
KCO2 221655Z 11011KT 14/11 A3008 RMK A01 T01400112  RH  083%=      5-min Rain = 0
KCO2 221656Z 12011KT 14/11 A3008 RMK A01 T01390112  RH  084%=      5-min Rain = 0
KCO2 221657Z 12008KT 14/11 A3008 RMK A01 T01380113  RH  085%=      5-min Rain = 0
KCO2 221658Z 12008KT 14/11 A3008 RMK A01 T01380114  RH  086%=      5-min Rain = 0
KCO2 221659Z 12009KT 14/11 A3008 RMK A01 T01380114  RH  086%=      5-min Rain = 0
KCO2 221700Z 12010KT 14/11 A3008 RMK A01 T01380114  RH  086%=      5-min Rain = 0
KCO2 221701Z 13010KT 14/11 A3008 RMK A01 T01380114  RH  086%=      5-min Rain = 0
KCO2 221702Z 13009KT 14/11 A3008 RMK A01 T01380114  RH  085%=      5-min Rain = 0
KCO2 221703Z 13008KT 14/12 A3008 RMK A01 T01390115  RH  085%=      5-min Rain = 0
KCO2 221704Z 13009KT 14/12 A3008 RMK A01 T01400116  RH  086%=      5-min Rain = 0
KCO2 221705Z 13007KT 14/12 A3008 RMK A01 T01420117  RH  085%=      5-min Rain = 0
KCO2 221706Z 13009KT 14/12 A3008 RMK A01 T01430119  RH  085%=      5-min Rain = 0
KCO2 221707Z 13008KT 15/12 A3008 RMK A01 T01450119  RH  084%=      5-min Rain = 0
KCO2 221708Z 14007KT 15/12 A3008 RMK A01 T01470119  RH  083%=      5-min Rain = 0
KCO2 221709Z 14008KT 15/12 A3009 RMK A01 T01480119  RH  083%=      5-min Rain = 0
KCO2 221710Z 14009KT 15/12 A3009 RMK A01 T01480117  RH  081%=      5-min Rain = 0
KCO2 221711Z 14007KT 15/12 A3009 RMK A01 T01480117  RH  081%=      5-min Rain = 0
KCO2 221712Z 14007KT 15/12 A3009 RMK A01 T01480117  RH  082%=      5-min Rain = 0
KCO2 221713Z 15007KT 15/12 A301 RMK A01 T01470116  RH  081%=      5-min Rain = 0
KCO2 221714Z 16007KT 15/12 A301 RMK A01 T01470116  RH  082%=      5-min Rain = 0
KCO2 221715Z 16006KT 15/12 A301 RMK A01 T01470117  RH  082%=      5-min Rain = 0
KCO2 221716Z 15008KT 15/12 A301 RMK A01 T01470116  RH  082%=      5-min Rain = 0
KCO2 221717Z 15007KT 15/12 A3009 RMK A01 T01470116  RH  081%=      5-min Rain = 0
KCO2 221718Z 15008KT 15/12 A3009 RMK A01 T01480117  RH  082%=      5-min Rain = 0
KCO2 221719Z 15011KT 15/12 A3009 RMK A01 T01470117  RH  082%=      5-min Rain = 0
KCO2 221720Z 16010KT 15/12 A3009 RMK A01 T01470116  RH  082%=      5-min Rain = 0
KCO2 221721Z 15009KT 15/12 A3009 RMK A01 T01480116  RH  081%=      5-min Rain = 0
KCO2 221722Z 15008KT 15/12 A3009 RMK A01 T01480118  RH  082%=      5-min Rain = 0
KCO2 221723Z 15010KT 15/12 A3009 RMK A01 T01490118  RH  082%=      5-min Rain = 0
KCO2 221724Z 15011KT 15/12 A3009 RMK A01 T01490117  RH  081%=      5-min Rain = 0
KCO2 221725Z 15010KT 15/12 A3009 RMK A01 T01490118  RH  081%=      5-min Rain = 0
KCO2 221726Z 15010KT 15/12 A3008 RMK A01 T01500119  RH  082%=      5-min Rain = 0
KCO2 221727Z 14012KT 15/12 A3008 RMK A01 T01510119  RH  081%=      5-min Rain = 0
KCO2 221728Z 14011KT 15/12 A3007 RMK A01 T01530120  RH  081%=      5-min Rain = 0
KCO2 221729Z 13010KT 15/12 A3007 RMK A01 T01540121  RH  081%=      5-min Rain = 0
KCO2 221730Z 13012KT 16/12 A3007 RMK A01 T01560121  RH  080%=      5-min Rain = 0
KCO2 221731Z 13012KT 16/12 A3006 RMK A01 T01560120  RH  079%=      5-min Rain = 0
KCO2 221732Z 14012KT 16/12 A3006 RMK A01 T01570121  RH  079%=      5-min Rain = 0
KCO2 221733Z 13011KT 16/12 A3006 RMK A01 T01580122  RH  079%=      5-min Rain = 0
KCO2 221734Z 13011KT 16/13 A3006 RMK A01 T01610125  RH  079%=      5-min Rain = 0
KCO2 221735Z 14010KT 16/13 A3006 RMK A01 T01630129  RH  080%=      5-min Rain = 0
KCO2 221736Z 14014KT 17/13 A3006 RMK A01 T01670129  RH  078%=      5-min Rain = 0
KCO2 221737Z 14013KT 17/13 A3006 RMK A01 T01680127  RH  076%=      5-min Rain = 0
KCO2 221738Z 15013KT 17/13 A3006 RMK A01 T01690126  RH  075%=      5-min Rain = 0
KCO2 221739Z 16012KT 17/13 A3006 RMK A01 T01710131  RH  077%=      5-min Rain = 0
KCO2 221740Z 16013KT 18/13 A3006 RMK A01 T01750132  RH  076%=      5-min Rain = 0
KCO2 221741Z 16013KT 18/13 A3006 RMK A01 T01780132  RH  074%=      5-min Rain = 0
KCO2 221742Z 16013KT 18/13 A3006 RMK A01 T01790132  RH  074%=      5-min Rain = 0
KCO2 221743Z 17015KT 18/13 A3006 RMK A01 T01810130  RH  072%=      5-min Rain = 0
KCO2 221744Z 16017KT 18/13 A3006 RMK A01 T01830129  RH  071%=      5-min Rain = 0
KCO2 221745Z 16015KT 18/13 A3006 RMK A01 T01840130  RH  071%=      5-min Rain = 0
KCO2 221746Z 17012KT 19/13 A3006 RMK A01 T01860134  RH  072%=      5-min Rain = 0
KCO2 221747Z 16017KT 19/13 A3006 RMK A01 T01900133  RH  070%=      5-min Rain = 0
KCO2 221748Z 17017KT 19/13 A3006 RMK A01 T01920130  RH  067%=      5-min Rain = 0
KCO2 221749Z 17016KT 19/13 A3006 RMK A01 T01940129  RH  066%=      5-min Rain = 0
KCO2 221750Z 17014KT 20/13 A3006 RMK A01 T01960130  RH  065%=      5-min Rain = 0
KCO2 221751Z 17015G20KT 20/13 A3006 RMK A01 T01990132  RH  065%=      5-min Rain = 0
KCO2 221752Z 16019KT 20/13 A3006 RMK A01 T02020129  RH  063%=      5-min Rain = 0
KCO2 221753Z 16018KT 20/13 A3006 RMK A01 T02030125  RH  061%=      5-min Rain = 0
KCO2 221754Z 15016KT 20/13 A3006 RMK A01 T02020126  RH  062%=      5-min Rain = 0
KCO2 221755Z 16016KT 20/13 A3006 RMK A01 T02020125  RH  061%=      5-min Rain = 0
KCO2 221756Z 17016KT 20/13 A3006 RMK A01 T02010127  RH  062%=      5-min Rain = 0
KCO2 221757Z 17018KT 20/13 A3006 RMK A01 T02010125  RH  062%=      5-min Rain = 0
KCO2 221758Z 17015KT 20/13 A3006 RMK A01 T02000125  RH  062%=      5-min Rain = 0
KCO2 221759Z 17013KT 20/13 A3006 RMK A01 T02000127  RH  063%=      5-min Rain = 0
KCO2 221800Z 15018G23KT 20/13 A3006 RMK A01 T02020125  RH  061%=      5-min Rain = 0
KCO2 221801Z 16020KT 20/12 A3006 RMK A01 T02030119  RH  058%=      5-min Rain = 0
KCO2 221802Z 16021KT 20/12 A3006 RMK A01 T02020116  RH  058%=      5-min Rain = 0
KCO2 221803Z 16019KT 20/12 A3005 RMK A01 T02010116  RH  058%=      5-min Rain = 0
KCO2 221804Z 16019G25KT 20/12 A3005 RMK A01 T02000117  RH  059%=      5-min Rain = 0
KCO2 221805Z 17023KT 20/12 A3005 RMK A01 T02000115  RH  058%=      5-min Rain = 0
KCO2 221806Z 17021G27KT 20/11 A3005 RMK A01 T01990112  RH  057%=      5-min Rain = 0
KCO2 221807Z 16022KT 20/11 A3005 RMK A01 T01980112  RH  057%=      5-min Rain = 0
KCO2 221808Z 17019G24KT 20/11 A3005 RMK A01 T01980112  RH  058%=      5-min Rain = 0
KCO2 221809Z 17019G24KT 20/11 A3005 RMK A01 T01980113  RH  058%=      5-min Rain = 0
KCO2 221810Z 17018KT 20/11 A3005 RMK A01 T01990113  RH  058%=      5-min Rain = 0
KCO2 221811Z 16018G23KT 20/11 A3005 RMK A01 T01990114  RH  058%=      5-min Rain = 0
KCO2 221812Z 16020KT 20/11 A3005 RMK A01 T02000113  RH  057%=      5-min Rain = 0
KCO2 221813Z 17020G25KT 20/11 A3005 RMK A01 T02000113  RH  057%=      5-min Rain = 0
KCO2 221814Z 17021G26KT 20/11 A3006 RMK A01 T02010114  RH  057%=      5-min Rain = 0
KCO2 221815Z 17017KT 20/12 A3006 RMK A01 T02020115  RH  058%=      5-min Rain = 0
KCO2 221816Z 17020KT 20/12 A3006 RMK A01 T02020116  RH  058%=      5-min Rain = 0
KCO2 221817Z 17018KT 20/12 A3006 RMK A01 T02020116  RH  058%=      5-min Rain = 0
KCO2 221818Z 17018KT 20/12 A3006 RMK A01 T02010116  RH  058%=      5-min Rain = 0
KCO2 221819Z 17016G22KT 20/12 A3006 RMK A01 T02000116  RH  058%=      5-min Rain = 0
KCO2 221820Z 17021KT 20/11 A3006 RMK A01 T02000114  RH  058%=      5-min Rain = 0
KCO2 221821Z 17015KT 20/11 A3006 RMK A01 T01990114  RH  058%=      5-min Rain = 0
KCO2 221822Z 17018KT 20/12 A3006 RMK A01 T02000115  RH  058%=      5-min Rain = 0
KCO2 221823Z 17017G23KT 20/12 A3005 RMK A01 T02010115  RH  058%=      5-min Rain = 0
KCO2 221824Z 16020G25KT 20/12 A3005 RMK A01 T02020115  RH  057%=      5-min Rain = 0
KCO2 221825Z 16018G23KT 20/12 A3005 RMK A01 T02030115  RH  057%=      5-min Rain = 0
KCO2 221826Z 16019KT 21/12 A3005 RMK A01 T02050116  RH  057%=      5-min Rain = 0
KCO2 221827Z 16019KT 21/12 A3005 RMK A01 T02070115  RH  055%=      5-min Rain = 0
KCO2 221828Z 17022KT 21/11 A3005 RMK A01 T02090114  RH  055%=      5-min Rain = 0
KCO2 221829Z 16019G24KT 21/12 A3005 RMK A01 T02100115  RH  055%=      5-min Rain = 0
KCO2 221830Z 17020KT 21/12 A3005 RMK A01 T02110115  RH  054%=      5-min Rain = 0
KCO2 221831Z 16021KT 21/11 A3005 RMK A01 T02110113  RH  054%=      5-min Rain = 0
KCO2 221832Z 17021KT 21/11 A3005 RMK A01 T02100114  RH  054%=      5-min Rain = 0
KCO2 221833Z 17020KT 21/11 A3005 RMK A01 T02090113  RH  054%=      5-min Rain = 0
KCO2 221834Z 16017G24KT 21/12 A3004 RMK A01 T02080115  RH  055%=      5-min Rain = 0
KCO2 221835Z 16016G22KT 21/12 A3005 RMK A01 T02090117  RH  056%=      5-min Rain = 0
KCO2 221836Z 15018KT 21/11 A3005 RMK A01 T02100114  RH  054%=      5-min Rain = 0
KCO2 221837Z 16021G26KT 21/11 A3005 RMK A01 T02090112  RH  054%=      5-min Rain = 0
KCO2 221838Z 16021G26KT 21/11 A3005 RMK A01 T02060111  RH  054%=      5-min Rain = 0
KCO2 221839Z 16019KT 20/11 A3005 RMK A01 T02040112  RH  055%=      5-min Rain = 0
KCO2 221840Z 17020G25KT 20/11 A3005 RMK A01 T02030112  RH  056%=      5-min Rain = 0
KCO2 221841Z 16019KT 20/11 A3005 RMK A01 T02030112  RH  056%=      5-min Rain = 0
KCO2 221842Z 16018KT 20/11 A3005 RMK A01 T02020112  RH  056%=      5-min Rain = 0
KCO2 221843Z 16016G21KT 20/11 A3005 RMK A01 T02020112  RH  056%=      5-min Rain = 0
KCO2 221844Z 16020KT 20/11 A3005 RMK A01 T02020112  RH  056%=      5-min Rain = 0
KCO2 221845Z 17018KT 20/11 A3004 RMK A01 T02030111  RH  056%=      5-min Rain = 0
KCO2 221846Z 17020G25KT 20/11 A3005 RMK A01 T02040111  RH  055%=      5-min Rain = 0
KCO2 221847Z 16020KT 21/11 A3005 RMK A01 T02050110  RH  054%=      5-min Rain = 0
KCO2 221848Z 17021KT 21/11 A3004 RMK A01 T02050110  RH  054%=      5-min Rain = 0
KCO2 221849Z 17020KT 20/11 A3004 RMK A01 T02040109  RH  055%=      5-min Rain = 0
KCO2 221850Z 17019KT 20/11 A3004 RMK A01 T02020110  RH  056%=      5-min Rain = 0
KCO2 221851Z 17016KT 20/11 A3004 RMK A01 T02000111  RH  056%=      5-min Rain = 0
KCO2 221852Z 16013KT 20/11 A3004 RMK A01 T02000112  RH  057%=      5-min Rain = 0
KCO2 221853Z 16018KT 20/11 A3004 RMK A01 T02000112  RH  057%=      5-min Rain = 0
KCO2 221854Z 16018KT 20/11 A3004 RMK A01 T02000112  RH  057%=      5-min Rain = 0
KCO2 221855Z 15021KT 20/11 A3004 RMK A01 T02000112  RH  057%=      5-min Rain = 0
KCO2 221856Z 16019KT 20/11 A3004 RMK A01 T02010111  RH  056%=      5-min Rain = 0
KCO2 221857Z 16019G24KT 20/11 A3004 RMK A01 T02010112  RH  056%=      5-min Rain = 0
KCO2 221858Z 16018KT 20/11 A3004 RMK A01 T02020112  RH  056%=      5-min Rain = 0
KCO2 221859Z 16014KT 20/11 A3004 RMK A01 T02030114  RH  057%=      5-min Rain = 0
KCO2 221900Z 16013G19KT 21/12 A3004 RMK A01 T02060116  RH  056%=      5-min Rain = 0
KCO2 221901Z 15017KT 21/12 A3004 RMK A01 T02090115  RH  055%=      5-min Rain = 0
KCO2 221902Z 15019G24KT 21/12 A3004 RMK A01 T02110115  RH  054%=      5-min Rain = 0
KCO2 221903Z 15019G24KT 21/11 A3004 RMK A01 T02120114  RH  053%=      5-min Rain = 0
KCO2 221904Z 16019G24KT 21/11 A3004 RMK A01 T02120113  RH  053%=      5-min Rain = 0
KCO2 221905Z 16021G27KT 21/11 A3004 RMK A01 T02110113  RH  053%=      5-min Rain = 0
KCO2 221906Z 16024KT 21/11 A3004 RMK A01 T02110113  RH  053%=      5-min Rain = 0
KCO2 221907Z 16020KT 21/11 A3004 RMK A01 T02090112  RH  054%=      5-min Rain = 0
KCO2 221908Z 16018KT 21/11 A3004 RMK A01 T02080113  RH  054%=      5-min Rain = 0
KCO2 221909Z 17018KT 21/11 A3004 RMK A01 T02060112  RH  055%=      5-min Rain = 0
KCO2 221910Z 17018KT 20/11 A3004 RMK A01 T02040111  RH  055%=      5-min Rain = 0
KCO2 221911Z 16019KT 20/11 A3004 RMK A01 T02030112  RH  056%=      5-min Rain = 0
KCO2 221912Z 16017G22KT 20/11 A3004 RMK A01 T02020112  RH  056%=      5-min Rain = 0
KCO2 221913Z 15022KT 20/11 A3004 RMK A01 T02030112  RH  056%=      5-min Rain = 0
KCO2 221914Z 15021G27KT 20/11 A3003 RMK A01 T02030111  RH  055%=      5-min Rain = 0
KCO2 221915Z 16018KT 20/11 A3003 RMK A01 T02020111  RH  056%=      5-min Rain = 0
KCO2 221916Z 16018G23KT 20/11 A3003 RMK A01 T02040113  RH  056%=      5-min Rain = 0
KCO2 221917Z 17020KT 21/11 A3003 RMK A01 T02070113  RH  055%=      5-min Rain = 0
KCO2 221918Z 17017KT 21/11 A3003 RMK A01 T02080114  RH  055%=      5-min Rain = 0
KCO2 221919Z 16018KT 21/12 A3003 RMK A01 T02110115  RH  054%=      5-min Rain = 0
KCO2 221920Z 15016KT 21/12 A3002 RMK A01 T02120116  RH  054%=      5-min Rain = 0
KCO2 221921Z 15018G23KT 21/11 A3002 RMK A01 T02130114  RH  053%=      5-min Rain = 0
KCO2 221922Z 15016G22KT 21/11 A3002 RMK A01 T02100113  RH  054%=      5-min Rain = 0
KCO2 221923Z 16016KT 21/11 A3002 RMK A01 T02090114  RH  055%=      5-min Rain = 0
KCO2 221924Z 15016KT 21/11 A3002 RMK A01 T02080113  RH  055%=      5-min Rain = 0
KCO2 221925Z 15017KT 21/12 A3002 RMK A01 T02080115  RH  055%=      5-min Rain = 0
KCO2 221926Z 15015KT 21/12 A3002 RMK A01 T02090116  RH  055%=      5-min Rain = 0
KCO2 221927Z 15017KT 21/12 A3002 RMK A01 T02110115  RH  054%=      5-min Rain = 0
KCO2 221928Z 16015KT 21/12 A3002 RMK A01 T02110115  RH  054%=      5-min Rain = 0
KCO2 221929Z 17018KT 21/11 A3002 RMK A01 T02110114  RH  054%=      5-min Rain = 0
KCO2 221930Z 17018G23KT 21/11 A3002 RMK A01 T02080113  RH  055%=      5-min Rain = 0
KCO2 221931Z 16014KT 21/12 A3002 RMK A01 T02080116  RH  055%=      5-min Rain = 0
KCO2 221932Z 15018G25KT 21/12 A3002 RMK A01 T02100116  RH  055%=      5-min Rain = 0
KCO2 221933Z 15016KT 21/11 A3002 RMK A01 T02100114  RH  054%=      5-min Rain = 0
KCO2 221934Z 15017G25KT 21/12 A3003 RMK A01 T02090115  RH  055%=      5-min Rain = 0
KCO2 221935Z 15019KT 21/11 A3003 RMK A01 T02080114  RH  055%=      5-min Rain = 0
KCO2 221936Z 15018KT 21/11 A3003 RMK A01 T02070113  RH  055%=      5-min Rain = 0
KCO2 221937Z 14017KT 21/11 A3003 RMK A01 T02050114  RH  056%=      5-min Rain = 0
KCO2 221938Z 15018KT 21/11 A3003 RMK A01 T02050113  RH  055%=      5-min Rain = 0
KCO2 221939Z 16016KT 20/11 A3003 RMK A01 T02030113  RH  056%=      5-min Rain = 0
KCO2 221940Z 15015KT 20/11 A3003 RMK A01 T02030114  RH  057%=      5-min Rain = 0
KCO2 221941Z 16017KT 21/12 A3003 RMK A01 T02050115  RH  056%=      5-min Rain = 0
KCO2 221942Z 17016G21KT 21/12 A3003 RMK A01 T02090116  RH  055%=      5-min Rain = 0
KCO2 221943Z 16017KT 21/12 A3003 RMK A01 T02120116  RH  054%=      5-min Rain = 0
KCO2 221944Z 18014KT 22/12 A3003 RMK A01 T02150118  RH  054%=      5-min Rain = 0
KCO2 221945Z 17018G24KT 22/12 A3003 RMK A01 T02190118  RH  053%=      5-min Rain = 0
KCO2 221946Z 16017KT 22/12 A3003 RMK A01 T02200116  RH  052%=      5-min Rain = 0
KCO2 221947Z 16014KT 22/12 A3003 RMK A01 T02180116  RH  052%=      5-min Rain = 0
KCO2 221948Z 15016KT 22/12 A3003 RMK A01 T02180118  RH  053%=      5-min Rain = 0
KCO2 221949Z 16014G20KT 22/12 A3003 RMK A01 T02190117  RH  052%=      5-min Rain = 0
KCO2 221950Z 15018KT 22/12 A3002 RMK A01 T02180116  RH  052%=      5-min Rain = 0
KCO2 221951Z 16018KT 22/11 A3003 RMK A01 T02150114  RH  052%=      5-min Rain = 0
KCO2 221952Z 16018KT 21/11 A3002 RMK A01 T02120114  RH  053%=      5-min Rain = 0
KCO2 221953Z 16017KT 21/11 A3002 RMK A01 T02110114  RH  054%=      5-min Rain = 0
KCO2 221954Z 16016KT 21/11 A3002 RMK A01 T02090114  RH  054%=      5-min Rain = 0
KCO2 221955Z 16017KT 21/11 A3002 RMK A01 T02080114  RH  055%=      5-min Rain = 0
KCO2 221956Z 16015KT 21/11 A3002 RMK A01 T02060114  RH  055%=      5-min Rain = 0
KCO2 221957Z 16014KT 21/11 A3002 RMK A01 T02050114  RH  056%=      5-min Rain = 0
KCO2 221958Z 17014G20KT 20/11 A3002 RMK A01 T02040114  RH  056%=      5-min Rain = 0
KCO2 221959Z 18019G24KT 20/11 A3002 RMK A01 T02040114  RH  056%=      5-min Rain = 0
KCO2 222000Z 17017G22KT 20/11 A3002 RMK A01 T02040114  RH  056%=      5-min Rain = 0
KCO2 222001Z 17016KT 20/11 A3002 RMK A01 T02030113  RH  056%=      5-min Rain = 0
KCO2 222002Z 17014KT 20/11 A3002 RMK A01 T02020114  RH  057%=      5-min Rain = 0
KCO2 222003Z 17015KT 20/11 A3002 RMK A01 T02020114  RH  057%=      5-min Rain = 0
KCO2 222004Z 17013KT 20/11 A3002 RMK A01 T02020114  RH  057%=      5-min Rain = 0
KCO2 222005Z 17014KT 20/12 A3002 RMK A01 T02020115  RH  057%=      5-min Rain = 0
KCO2 222006Z 16014KT 20/12 A3002 RMK A01 T02020115  RH  057%=      5-min Rain = 0
KCO2 222007Z 16016KT 20/11 A3002 RMK A01 T02020114  RH  057%=      5-min Rain = 0
KCO2 222008Z 16015KT 20/11 A3002 RMK A01 T02020114  RH  057%=      5-min Rain = 0
KCO2 222009Z 16017KT 20/11 A3002 RMK A01 T02010114  RH  057%=      5-min Rain = 0
KCO2 222010Z 16017KT 20/11 A3001 RMK A01 T02020114  RH  057%=      5-min Rain = 0
KCO2 222011Z 16013KT 20/11 A3001 RMK A01 T02020114  RH  057%=      5-min Rain = 0
KCO2 222012Z 15016KT 20/12 A3001 RMK A01 T02030115  RH  057%=      5-min Rain = 0
KCO2 222013Z 15015KT 20/11 A3001 RMK A01 T02040114  RH  056%=      5-min Rain = 0
KCO2 222014Z 17012KT 21/11 A3001 RMK A01 T02050114  RH  056%=      5-min Rain = 0
KCO2 222015Z 18017KT 21/12 A3001 RMK A01 T02060115  RH  056%=      5-min Rain = 0
KCO2 222016Z 17014G19KT 21/12 A3001 RMK A01 T02070116  RH  056%=      5-min Rain = 0
KCO2 222017Z 15016KT 21/12 A3001 RMK A01 T02070118  RH  056%=      5-min Rain = 0
KCO2 222018Z 16018KT 21/12 A3001 RMK A01 T02080117  RH  056%=      5-min Rain = 0
KCO2 222019Z 16016KT 21/12 A3001 RMK A01 T02090116  RH  055%=      5-min Rain = 0
KCO2 222020Z 16017KT 21/12 A3001 RMK A01 T02100116  RH  055%=      5-min Rain = 0
KCO2 222021Z 17016KT 21/12 A3001 RMK A01 T02100115  RH  054%=      5-min Rain = 0
KCO2 222022Z 17014KT 21/12 A3001 RMK A01 T02090115  RH  055%=      5-min Rain = 0
KCO2 222023Z 16014KT 21/12 A3001 RMK A01 T02090116  RH  055%=      5-min Rain = 0
KCO2 222024Z 16013KT 21/12 A3001 RMK A01 T02090115  RH  055%=      5-min Rain = 0
KCO2 222025Z 16012KT 21/12 A3001 RMK A01 T02080116  RH  055%=      5-min Rain = 0
KCO2 222026Z 15015KT 21/12 A3001 RMK A01 T02080115  RH  055%=      5-min Rain = 0
KCO2 222027Z 15012KT 21/12 A3001 RMK A01 T02080115  RH  055%=      5-min Rain = 0
KCO2 222028Z 16011KT 21/12 A3001 RMK A01 T02070116  RH  056%=      5-min Rain = 0
KCO2 222029Z 17017G23KT 21/12 A3001 RMK A01 T02090116  RH  055%=      5-min Rain = 0
KCO2 222030Z 17020KT 21/11 A30 RMK A01 T02090113  RH  054%=      5-min Rain = 0
KCO2 222031Z 17018KT 21/11 A30 RMK A01 T02080113  RH  055%=      5-min Rain = 0
KCO2 222032Z 17018KT 21/11 A30 RMK A01 T02070114  RH  055%=      5-min Rain = 0
KCO2 222033Z 17018KT 21/11 A30 RMK A01 T02070114  RH  055%=      5-min Rain = 0
KCO2 222034Z 17017KT 21/11 A30 RMK A01 T02070114  RH  055%=      5-min Rain = 0
KCO2 222035Z 17016KT 21/11 A30 RMK A01 T02080114  RH  055%=      5-min Rain = 0
KCO2 222036Z 16017KT 21/11 A30 RMK A01 T02070114  RH  055%=      5-min Rain = 0
KCO2 222037Z 17015KT 21/11 A30 RMK A01 T02080114  RH  055%=      5-min Rain = 0
KCO2 222038Z 17015KT 21/11 A30 RMK A01 T02080113  RH  055%=      5-min Rain = 0
KCO2 222039Z 16014KT 21/11 A30 RMK A01 T02080114  RH  055%=      5-min Rain = 0
KCO2 222040Z 17013KT 21/12 A30 RMK A01 T02080115  RH  055%=      5-min Rain = 0
KCO2 222041Z 17015KT 21/12 A30 RMK A01 T02080115  RH  055%=      5-min Rain = 0
KCO2 222042Z 17013G18KT 21/12 A30 RMK A01 T02070115  RH  056%=      5-min Rain = 0
KCO2 222043Z 16017KT 21/12 A30 RMK A01 T02080115  RH  055%=      5-min Rain = 0
KCO2 222044Z 17018KT 21/11 A30 RMK A01 T02090113  RH  054%=      5-min Rain = 0
KCO2 222045Z 17017KT 21/11 A30 RMK A01 T02090113  RH  054%=      5-min Rain = 0
KCO2 222046Z 17015KT 21/11 A30 RMK A01 T02080113  RH  054%=      5-min Rain = 0
KCO2 222047Z 16011KT 21/11 A30 RMK A01 T02080113  RH  055%=      5-min Rain = 0
KCO2 222048Z 17015KT 21/11 A30 RMK A01 T02090114  RH  055%=      5-min Rain = 0
KCO2 222049Z 17015KT 21/11 A30 RMK A01 T02100114  RH  054%=      5-min Rain = 0
KCO2 222050Z 16018KT 21/11 A30 RMK A01 T02100114  RH  054%=      5-min Rain = 0
KCO2 222051Z 16017G22KT 21/11 A30 RMK A01 T02100114  RH  054%=      5-min Rain = 0
KCO2 222052Z 16015KT 21/11 A30 RMK A01 T02100114  RH  054%=      5-min Rain = 0
KCO2 222053Z 16014KT 21/11 A30 RMK A01 T02110114  RH  054%=      5-min Rain = 0
KCO2 222054Z 16014KT 21/11 A2999 RMK A01 T02110114  RH  054%=      5-min Rain = 0
KCO2 222055Z 17013G18KT 21/11 A2999 RMK A01 T02120114  RH  054%=      5-min Rain = 0
KCO2 222056Z 17016KT 21/11 A2999 RMK A01 T02120114  RH  054%=      5-min Rain = 0
KCO2 222057Z 17014KT 21/12 A2999 RMK A01 T02120115  RH  054%=      5-min Rain = 0
KCO2 222058Z 17015KT 21/12 A2999 RMK A01 T02120115  RH  054%=      5-min Rain = 0
KCO2 222059Z 17014KT 21/11 A2999 RMK A01 T02120114  RH  054%=      5-min Rain = 0
KCO2 222100Z 16014G19KT 21/12 A2999 RMK A01 T02120115  RH  054%=      5-min Rain = 0
KCO2 222101Z 16016G21KT 21/11 A2999 RMK A01 T02120114  RH  054%=      5-min Rain = 0
KCO2 222102Z 17018KT 21/11 A2999 RMK A01 T02120113  RH  053%=      5-min Rain = 0
KCO2 222103Z 16015KT 21/11 A2999 RMK A01 T02110113  RH  054%=      5-min Rain = 0
KCO2 222104Z 16014KT 21/11 A2999 RMK A01 T02110114  RH  054%=      5-min Rain = 0
KCO2 222105Z 17015G20KT 21/11 A2999 RMK A01 T02110114  RH  054%=      5-min Rain = 0
KCO2 222106Z 16016KT 21/11 A2999 RMK A01 T02120114  RH  054%=      5-min Rain = 0
KCO2 222107Z 17015KT 21/11 A2998 RMK A01 T02120114  RH  053%=      5-min Rain = 0
KCO2 222108Z 16014KT 21/12 A2998 RMK A01 T02140115  RH  053%=      5-min Rain = 0
KCO2 222109Z 16015KT 22/12 A2998 RMK A01 T02160115  RH  052%=      5-min Rain = 0
KCO2 222110Z 16014KT 22/11 A2998 RMK A01 T02170114  RH  052%=      5-min Rain = 0
KCO2 222111Z 16018G23KT 22/11 A2998 RMK A01 T02180114  RH  052%=      5-min Rain = 0
KCO2 222112Z 17015KT 22/11 A2998 RMK A01 T02180114  RH  052%=      5-min Rain = 0
KCO2 222113Z 17013KT 22/11 A2998 RMK A01 T02180114  RH  052%=      5-min Rain = 0
KCO2 222114Z 17014KT 22/11 A2998 RMK A01 T02180114  RH  052%=      5-min Rain = 0
KCO2 222115Z 17017G22KT 22/12 A2998 RMK A01 T02190115  RH  052%=      5-min Rain = 0
KCO2 222116Z 18020KT 22/11 A2998 RMK A01 T02190114  RH  051%=      5-min Rain = 0
KCO2 222117Z 17024KT 22/11 A2998 RMK A01 T02180113  RH  051%=      5-min Rain = 0
KCO2 222118Z 16020KT 22/11 A2998 RMK A01 T02170113  RH  052%=      5-min Rain = 0
KCO2 222119Z 18020G27KT 22/11 A2998 RMK A01 T02160114  RH  052%=      5-min Rain = 0
KCO2 222120Z 18022KT 22/11 A2998 RMK A01 T02160112  RH  052%=      5-min Rain = 0
KCO2 222121Z 17017G24KT 22/11 A2998 RMK A01 T02160112  RH  052%=      5-min Rain = 0
KCO2 222122Z 18018KT 22/11 A2998 RMK A01 T02170113  RH  052%=      5-min Rain = 0
KCO2 222123Z 17017G22KT 22/11 A2998 RMK A01 T02170114  RH  052%=      5-min Rain = 0
KCO2 222124Z 17020KT 22/11 A2997 RMK A01 T02180113  RH  051%=      5-min Rain = 0
KCO2 222125Z 17017KT 22/11 A2998 RMK A01 T02170114  RH  052%=      5-min Rain = 0
KCO2 222126Z 16018KT 22/11 A2997 RMK A01 T02170114  RH  052%=      5-min Rain = 0
KCO2 222127Z 16018KT 22/11 A2997 RMK A01 T02160113  RH  052%=      5-min Rain = 0
KCO2 222128Z 16017G22KT 22/11 A2997 RMK A01 T02160113  RH  052%=      5-min Rain = 0
KCO2 222129Z 18018KT 22/11 A2997 RMK A01 T02160114  RH  052%=      5-min Rain = 0
KCO2 222130Z 18016KT 22/11 A2997 RMK A01 T02160114  RH  052%=      5-min Rain = 0
KCO2 222131Z 17014G19KT 22/11 A2997 RMK A01 T02170114  RH  052%=      5-min Rain = 0
KCO2 222132Z 17013KT 22/12 A2997 RMK A01 T02180116  RH  052%=      5-min Rain = 0
KCO2 222133Z 17015KT 22/12 A2997 RMK A01 T02190116  RH  052%=      5-min Rain = 0
KCO2 222134Z 18015KT 22/12 A2997 RMK A01 T02190115  RH  052%=      5-min Rain = 0
KCO2 222135Z 17018KT 22/11 A2997 RMK A01 T02190114  RH  051%=      5-min Rain = 0
KCO2 222136Z 17015KT 22/11 A2997 RMK A01 T02190114  RH  052%=      5-min Rain = 0
KCO2 222137Z 17015KT 22/11 A2997 RMK A01 T02180114  RH  052%=      5-min Rain = 0
KCO2 222138Z 17015KT 22/12 A2997 RMK A01 T02180115  RH  052%=      5-min Rain = 0
KCO2 222139Z 17014KT 22/11 A2997 RMK A01 T02180114  RH  052%=      5-min Rain = 0
KCO2 222140Z 17013KT 22/12 A2997 RMK A01 T02170115  RH  052%=      5-min Rain = 0
KCO2 222141Z 17016KT 22/11 A2997 RMK A01 T02170114  RH  052%=      5-min Rain = 0
KCO2 222142Z 17017G23KT 22/11 A2997 RMK A01 T02160114  RH  052%=      5-min Rain = 0
KCO2 222143Z 17018KT 22/11 A2997 RMK A01 T02150113  RH  052%=      5-min Rain = 0
KCO2 222144Z 16019KT 21/11 A2997 RMK A01 T02130112  RH  052%=      5-min Rain = 0
KCO2 222145Z 17016KT 21/11 A2997 RMK A01 T02120112  RH  053%=      5-min Rain = 0
KCO2 222146Z 17018KT 21/11 A2997 RMK A01 T02110112  RH  053%=      5-min Rain = 0
KCO2 222147Z 16015KT 21/11 A2997 RMK A01 T02110112  RH  053%=      5-min Rain = 0
KCO2 222148Z 17014KT 21/11 A2997 RMK A01 T02110112  RH  053%=      5-min Rain = 0
KCO2 222149Z 17016KT 21/11 A2997 RMK A01 T02110113  RH  053%=      5-min Rain = 0
KCO2 222150Z 17015KT 21/11 A2997 RMK A01 T02110113  RH  053%=      5-min Rain = 0
KCO2 222151Z 18016KT 21/11 A2997 RMK A01 T02110113  RH  053%=      5-min Rain = 0
KCO2 222152Z 18016KT 21/11 A2997 RMK A01 T02110112  RH  053%=      5-min Rain = 0
KCO2 222153Z 17015KT 21/11 A2997 RMK A01 T02120113  RH  053%=      5-min Rain = 0
KCO2 222154Z 17019KT 21/11 A2997 RMK A01 T02120112  RH  053%=      5-min Rain = 0
KCO2 222155Z 18019KT 21/11 A2997 RMK A01 T02120111  RH  053%=      5-min Rain = 0
KCO2 222156Z 18017G22KT 21/11 A2997 RMK A01 T02110112  RH  053%=      5-min Rain = 0
KCO2 222157Z 18018KT 21/11 A2997 RMK A01 T02110111  RH  053%=      5-min Rain = 0
KCO2 222158Z 17017G24KT 21/11 A2997 RMK A01 T02110112  RH  053%=      5-min Rain = 0
KCO2 222159Z 17017KT 21/11 A2997 RMK A01 T02110112  RH  053%=      5-min Rain = 0
KCO2 222200Z 17015KT 21/11 A2997 RMK A01 T02110113  RH  053%=      5-min Rain = 0
KCO2 222201Z 17015KT 21/11 A2997 RMK A01 T02110113  RH  054%=      5-min Rain = 0
KCO2 222202Z 17016KT 21/11 A2997 RMK A01 T02110113  RH  054%=      5-min Rain = 0
KCO2 222203Z 17016G21KT 21/11 A2997 RMK A01 T02110113  RH  054%=      5-min Rain = 0
KCO2 222204Z 17015KT 21/11 A2997 RMK A01 T02110113  RH  054%=      5-min Rain = 0
KCO2 222205Z 17016KT 21/11 A2997 RMK A01 T02100113  RH  054%=      5-min Rain = 0.01
KCO2 222206Z 17019KT 21/11 A2996 RMK A01 T02100113  RH  054%=      5-min Rain = 0
KCO2 222207Z 17017KT 21/11 A2996 RMK A01 T02100112  RH  053%=      5-min Rain = 0
KCO2 222208Z 17015KT 21/11 A2996 RMK A01 T02090112  RH  054%=      5-min Rain = 0
KCO2 222209Z 17017KT 21/11 A2996 RMK A01 T02090112  RH  054%=      5-min Rain = 0
KCO2 222210Z 17014KT 21/11 A2996 RMK A01 T02090112  RH  054%=      5-min Rain = 0
KCO2 222211Z 17016KT 21/11 A2996 RMK A01 T02090113  RH  054%=      5-min Rain = 0
KCO2 222212Z 18014KT 21/11 A2996 RMK A01 T02090113  RH  054%=      5-min Rain = 0
KCO2 222213Z 17014KT 21/11 A2996 RMK A01 T02090113  RH  054%=      5-min Rain = 0
KCO2 222214Z 17013KT 21/11 A2996 RMK A01 T02090113  RH  054%=      5-min Rain = 0
KCO2 222215Z 17015KT 21/11 A2996 RMK A01 T02090114  RH  054%=      5-min Rain = 0
KCO2 222216Z 18011KT 21/11 A2996 RMK A01 T02090114  RH  054%=      5-min Rain = 0
KCO2 222217Z 17013KT 21/11 A2996 RMK A01 T02100114  RH  054%=      5-min Rain = 0
KCO2 222218Z 17014KT 21/11 A2996 RMK A01 T02100114  RH  054%=      5-min Rain = 0
KCO2 222219Z 17012KT 21/11 A2996 RMK A01 T02100114  RH  054%=      5-min Rain = 0
KCO2 222220Z 17012KT 21/11 A2996 RMK A01 T02110114  RH  054%=      5-min Rain = 0
KCO2 222221Z 18011KT 21/11 A2996 RMK A01 T02110114  RH  054%=      5-min Rain = 0
KCO2 222222Z 18009KT 21/11 A2996 RMK A01 T02110114  RH  054%=      5-min Rain = 0
KCO2 222223Z 18011KT 21/12 A2996 RMK A01 T02120115  RH  054%=      5-min Rain = 0
KCO2 222224Z 18014KT 21/11 A2996 RMK A01 T02120112  RH  053%=      5-min Rain = 0
KCO2 222225Z 18016G21KT 21/11 A2996 RMK A01 T02120110  RH  052%=      5-min Rain = 0
KCO2 222226Z 18013KT 21/11 A2996 RMK A01 T02120110  RH  052%=      5-min Rain = 0
KCO2 222227Z 18015G20KT 21/11 A2996 RMK A01 T02120110  RH  052%=      5-min Rain = 0
KCO2 222228Z 18014KT 21/11 A2996 RMK A01 T02120110  RH  052%=      5-min Rain = 0
KCO2 222229Z 18016KT 21/11 A2996 RMK A01 T02120109  RH  052%=      5-min Rain = 0
KCO2 222230Z 18018KT 21/11 A2996 RMK A01 T02110109  RH  052%=      5-min Rain = 0
KCO2 222231Z 18018KT 21/11 A2996 RMK A01 T02110108  RH  052%=      5-min Rain = 0
KCO2 222232Z 18018KT 21/11 A2996 RMK A01 T02110108  RH  052%=      5-min Rain = 0
KCO2 222233Z 18017KT 21/11 A2996 RMK A01 T02100108  RH  052%=      5-min Rain = 0
KCO2 222234Z 18013KT 21/11 A2996 RMK A01 T02100109  RH  052%=      5-min Rain = 0
KCO2 222235Z 19013KT 21/11 A2996 RMK A01 T02100109  RH  052%=      5-min Rain = 0
KCO2 222236Z 18014KT 21/11 A2996 RMK A01 T02100109  RH  053%=      5-min Rain = 0
KCO2 222237Z 18013KT 21/11 A2996 RMK A01 T02100110  RH  053%=      5-min Rain = 0
KCO2 222238Z 18012KT 21/11 A2996 RMK A01 T02100110  RH  053%=      5-min Rain = 0
KCO2 222239Z 18012KT 21/11 A2996 RMK A01 T02090110  RH  053%=      5-min Rain = 0
KCO2 222240Z 18014KT 21/11 A2996 RMK A01 T02090110  RH  053%=      5-min Rain = 0
KCO2 222241Z 18014KT 21/11 A2996 RMK A01 T02090110  RH  053%=      5-min Rain = 0
KCO2 222242Z 18016KT 21/11 A2996 RMK A01 T02090109  RH  053%=      5-min Rain = 0
KCO2 222243Z 18013KT 21/11 A2996 RMK A01 T02090109  RH  053%=      5-min Rain = 0
KCO2 222244Z 18012KT 21/11 A2996 RMK A01 T02090110  RH  053%=      5-min Rain = 0
KCO2 222245Z 18013KT 21/11 A2996 RMK A01 T02090110  RH  053%=      5-min Rain = 0
KCO2 222246Z 18013KT 21/11 A2996 RMK A01 T02090110  RH  053%=      5-min Rain = 0
KCO2 222247Z 18016KT 21/11 A2996 RMK A01 T02080109  RH  053%=      5-min Rain = 0
KCO2 222248Z 18013KT 21/11 A2996 RMK A01 T02080109  RH  053%=      5-min Rain = 0
KCO2 222249Z 19014KT 21/11 A2996 RMK A01 T02080109  RH  053%=      5-min Rain = 0
KCO2 222250Z 18016KT 21/11 A2996 RMK A01 T02080109  RH  053%=      5-min Rain = 0
KCO2 222251Z 18015KT 21/11 A2996 RMK A01 T02080109  RH  053%=      5-min Rain = 0
KCO2 222252Z 18012KT 21/11 A2996 RMK A01 T02080109  RH  053%=      5-min Rain = 0
KCO2 222253Z 18014KT 21/11 A2995 RMK A01 T02080110  RH  053%=      5-min Rain = 0
KCO2 222254Z 18015KT 21/11 A2995 RMK A01 T02080110  RH  053%=      5-min Rain = 0
KCO2 222255Z 19015KT 21/11 A2995 RMK A01 T02080109  RH  053%=      5-min Rain = 0
KCO2 222256Z 18013KT 21/11 A2995 RMK A01 T02080109  RH  053%=      5-min Rain = 0
KCO2 222257Z 18016KT 21/11 A2995 RMK A01 T02080109  RH  053%=      5-min Rain = 0
KCO2 222258Z 18013KT 21/11 A2995 RMK A01 T02080109  RH  053%=      5-min Rain = 0
KCO2 222259Z 18013KT 21/11 A2995 RMK A01 T02080109  RH  053%=      5-min Rain = 0
KCO2 222300Z 18016KT 21/11 A2995 RMK A01 T02080109  RH  053%=      5-min Rain = 0
KCO2 222301Z 18013G18KT 21/11 A2995 RMK A01 T02080109  RH  053%=      5-min Rain = 0
KCO2 222302Z 18013KT 21/11 A2995 RMK A01 T02080109  RH  053%=      5-min Rain = 0
KCO2 222303Z 18013KT 21/11 A2995 RMK A01 T02080109  RH  053%=      5-min Rain = 0
KCO2 222304Z 18015KT 21/11 A2995 RMK A01 T02080109  RH  053%=      5-min Rain = 0
KCO2 222305Z 19016KT 21/11 A2995 RMK A01 T02080109  RH  053%=      5-min Rain = 0
KCO2 222306Z 18013KT 21/11 A2995 RMK A01 T02080109  RH  053%=      5-min Rain = 0
KCO2 222307Z 18011KT 21/11 A2995 RMK A01 T02080109  RH  053%=      5-min Rain = 0
KCO2 222308Z 18014KT 21/11 A2995 RMK A01 T02080109  RH  053%=      5-min Rain = 0
KCO2 222309Z 18014KT 21/11 A2995 RMK A01 T02080108  RH  053%=      5-min Rain = 0
KCO2 222310Z 19015KT 21/11 A2995 RMK A01 T02080108  RH  053%=      5-min Rain = 0
KCO2 222311Z 18015KT 21/11 A2995 RMK A01 T02080108  RH  053%=      5-min Rain = 0
KCO2 222312Z 18015KT 21/11 A2995 RMK A01 T02080108  RH  053%=      5-min Rain = 0
KCO2 222313Z 18014KT 21/11 A2995 RMK A01 T02080108  RH  053%=      5-min Rain = 0
KCO2 222314Z 18013KT 21/11 A2995 RMK A01 T02080108  RH  053%=      5-min Rain = 0
KCO2 222315Z 18016KT 21/11 A2995 RMK A01 T02080108  RH  053%=      5-min Rain = 0
KCO2 222316Z 18015KT 21/11 A2995 RMK A01 T02080108  RH  053%=      5-min Rain = 0
KCO2 222317Z 18015KT 21/11 A2995 RMK A01 T02080108  RH  053%=      5-min Rain = 0
KCO2 222318Z 18015G20KT 21/11 A2995 RMK A01 T02080108  RH  053%=      5-min Rain = 0
KCO2 222319Z 19013KT 21/11 A2995 RMK A01 T02080108  RH  053%=      5-min Rain = 0
KCO2 222320Z 18014KT 21/11 A2995 RMK A01 T02080108  RH  053%=      5-min Rain = 0
KCO2 222321Z 18012KT 21/11 A2995 RMK A01 T02080108  RH  053%=      5-min Rain = 0
KCO2 222322Z 18011KT 21/11 A2995 RMK A01 T02080109  RH  053%=      5-min Rain = 0
KCO2 222323Z 18012KT 21/11 A2995 RMK A01 T02080109  RH  053%=      5-min Rain = 0
KCO2 222324Z 18014KT 21/11 A2995 RMK A01 T02080109  RH  053%=      5-min Rain = 0
KCO2 222325Z 18012KT 21/11 A2995 RMK A01 T02080109  RH  053%=      5-min Rain = 0
KCO2 222326Z 18012KT 21/11 A2995 RMK A01 T02080109  RH  053%=      5-min Rain = 0
KCO2 222327Z 18012KT 21/11 A2995 RMK A01 T02070109  RH  053%=      5-min Rain = 0
KCO2 222328Z 18013KT 21/11 A2995 RMK A01 T02070109  RH  053%=      5-min Rain = 0
KCO2 222329Z 18012G17KT 21/11 A2995 RMK A01 T02070110  RH  053%=      5-min Rain = 0
KCO2 222330Z 18014KT 21/11 A2995 RMK A01 T02070109  RH  053%=      5-min Rain = 0
KCO2 222331Z 18013KT 21/11 A2995 RMK A01 T02070109  RH  053%=      5-min Rain = 0
KCO2 222332Z 18012KT 21/11 A2995 RMK A01 T02080110  RH  053%=      5-min Rain = 0
KCO2 222333Z 18013KT 21/11 A2995 RMK A01 T02070110  RH  053%=      5-min Rain = 0
KCO2 222334Z 18013KT 21/11 A2995 RMK A01 T02070110  RH  054%=      5-min Rain = 0
KCO2 222335Z 19013KT 21/11 A2995 RMK A01 T02070110  RH  053%=      5-min Rain = 0
KCO2 222336Z 18013KT 21/11 A2995 RMK A01 T02070109  RH  053%=      5-min Rain = 0
KCO2 222337Z 18010KT 21/11 A2995 RMK A01 T02070110  RH  054%=      5-min Rain = 0
KCO2 222338Z 18011KT 21/11 A2995 RMK A01 T02070110  RH  054%=      5-min Rain = 0
KCO2 222339Z 18011KT 21/11 A2995 RMK A01 T02070111  RH  054%=      5-min Rain = 0
KCO2 222340Z 18012KT 21/11 A2995 RMK A01 T02070111  RH  054%=      5-min Rain = 0
KCO2 222341Z 18013KT 21/11 A2995 RMK A01 T02070110  RH  054%=      5-min Rain = 0
KCO2 222342Z 17012KT 21/11 A2994 RMK A01 T02060110  RH  054%=      5-min Rain = 0
KCO2 222343Z 17013KT 21/11 A2994 RMK A01 T02060111  RH  054%=      5-min Rain = 0
KCO2 222344Z 17013KT 21/11 A2994 RMK A01 T02060110  RH  054%=      5-min Rain = 0
KCO2 222345Z 17012G17KT 21/11 A2994 RMK A01 T02070111  RH  054%=      5-min Rain = 0
KCO2 222346Z 17012KT 21/11 A2994 RMK A01 T02060110  RH  054%=      5-min Rain = 0
KCO2 222347Z 17013KT 21/11 A2994 RMK A01 T02060110  RH  054%=      5-min Rain = 0
KCO2 222348Z 17014G20KT 21/11 A2994 RMK A01 T02060110  RH  054%=      5-min Rain = 0
KCO2 222349Z 17014KT 21/11 A2994 RMK A01 T02060110  RH  054%=      5-min Rain = 0
KCO2 222350Z 17015KT 21/11 A2994 RMK A01 T02060110  RH  054%=      5-min Rain = 0
KCO2 222351Z 18016KT 21/11 A2994 RMK A01 T02060110  RH  054%=      5-min Rain = 0
KCO2 222352Z 18013KT 21/11 A2994 RMK A01 T02060110  RH  054%=      5-min Rain = 0
KCO2 222353Z 18015KT 21/11 A2994 RMK A01 T02060109  RH  054%=      5-min Rain = 0
KCO2 222354Z 18015KT 21/11 A2994 RMK A01 T02050109  RH  054%=      5-min Rain = 0
KCO2 222355Z 18013G19KT 21/11 A2994 RMK A01 T02060109  RH  054%=      5-min Rain = 0
KCO2 222356Z 18014G19KT 21/11 A2994 RMK A01 T02050110  RH  054%=      5-min Rain = 0
KCO2 222357Z 18015KT 21/11 A2994 RMK A01 T02050109  RH  054%=      5-min Rain = 0
KCO2 222358Z 18015KT 21/11 A2995 RMK A01 T02050109  RH  054%=      5-min Rain = 0
KCO2 222359Z 18013KT 21/11 A2995 RMK A01 T02050110  RH  054%=      5-min Rain = 0
KCO2 230000Z 18012G17KT 20/11 A2995 RMK A01 T02040110  RH  054%=      5-min Rain = 0
KCO2 230001Z 18014KT 20/11 A2995 RMK A01 T02040110  RH  055%=      5-min Rain = 0
KCO2 230002Z 18012KT 20/11 A2995 RMK A01 T02040110  RH  055%=      5-min Rain = 0
KCO2 230003Z 18013KT 20/11 A2995 RMK A01 T02040110  RH  055%=      5-min Rain = 0
KCO2 230004Z 18012KT 20/11 A2995 RMK A01 T02040110  RH  055%=      5-min Rain = 0
KCO2 230005Z 18012KT 20/11 A2995 RMK A01 T02040110  RH  055%=      5-min Rain = 0
KCO2 230006Z 18013KT 20/11 A2994 RMK A01 T02030110  RH  055%=      5-min Rain = 0
KCO2 230007Z 18012KT 20/11 A2995 RMK A01 T02040110  RH  055%=      5-min Rain = 0
KCO2 230008Z 18011KT 20/11 A2995 RMK A01 T02040110  RH  055%=      5-min Rain = 0
KCO2 230009Z 18011KT 20/11 A2995 RMK A01 T02040111  RH  055%=      5-min Rain = 0
KCO2 230010Z 18012KT 20/11 A2995 RMK A01 T02030111  RH  055%=      5-min Rain = 0
KCO2 230011Z 18011KT 20/11 A2995 RMK A01 T02030111  RH  055%=      5-min Rain = 0
KCO2 230012Z 17012KT 20/11 A2995 RMK A01 T02030111  RH  055%=      5-min Rain = 0
KCO2 230013Z 18013KT 20/11 A2995 RMK A01 T02030110  RH  055%=      5-min Rain = 0
KCO2 230014Z 17013KT 20/11 A2995 RMK A01 T02030110  RH  055%=      5-min Rain = 0
KCO2 230015Z 18011KT 20/11 A2995 RMK A01 T02030110  RH  055%=      5-min Rain = 0
KCO2 230016Z 18013KT 20/11 A2995 RMK A01 T02020111  RH  055%=      5-min Rain = 0
KCO2 230017Z 17014KT 20/11 A2995 RMK A01 T02020110  RH  055%=      5-min Rain = 0
KCO2 230018Z 17013KT 20/11 A2995 RMK A01 T02020110  RH  055%=      5-min Rain = 0
KCO2 230019Z 18012KT 20/11 A2995 RMK A01 T02020110  RH  055%=      5-min Rain = 0
KCO2 230020Z 17014KT 20/11 A2995 RMK A01 T02010110  RH  056%=      5-min Rain = 0
KCO2 230021Z 17014KT 20/11 A2995 RMK A01 T02010110  RH  056%=      5-min Rain = 0
KCO2 230022Z 18014G19KT 20/11 A2995 RMK A01 T02010109  RH  056%=      5-min Rain = 0
KCO2 230023Z 18011G17KT 20/11 A2995 RMK A01 T02010109  RH  055%=      5-min Rain = 0
KCO2 230024Z 18015KT 20/11 A2995 RMK A01 T02000109  RH  056%=      5-min Rain = 0
KCO2 230025Z 17016KT 20/11 A2995 RMK A01 T02000108  RH  055%=      5-min Rain = 0
KCO2 230026Z 17013KT 20/11 A2995 RMK A01 T02000108  RH  055%=      5-min Rain = 0
KCO2 230027Z 18014KT 20/11 A2995 RMK A01 T02000108  RH  055%=      5-min Rain = 0
KCO2 230028Z 18014G19KT 20/11 A2995 RMK A01 T02000108  RH  055%=      5-min Rain = 0
KCO2 230029Z 18015KT 20/11 A2995 RMK A01 T02000107  RH  055%=      5-min Rain = 0
KCO2 230030Z 17015KT 20/11 A2995 RMK A01 T02000107  RH  055%=      5-min Rain = 0
KCO2 230031Z 18013KT 20/11 A2995 RMK A01 T01990107  RH  055%=      5-min Rain = 0
KCO2 230032Z 18014G20KT 20/11 A2995 RMK A01 T01990106  RH  055%=      5-min Rain = 0
KCO2 230033Z 18015KT 20/11 A2995 RMK A01 T01990106  RH  055%=      5-min Rain = 0
KCO2 230034Z 17015KT 20/11 A2995 RMK A01 T01990106  RH  055%=      5-min Rain = 0
KCO2 230035Z 18014KT 20/11 A2995 RMK A01 T01990106  RH  055%=      5-min Rain = 0
KCO2 230036Z 18015KT 20/11 A2995 RMK A01 T01980106  RH  055%=      5-min Rain = 0
KCO2 230037Z 18013KT 20/11 A2995 RMK A01 T01980106  RH  055%=      5-min Rain = 0
KCO2 230038Z 17015KT 20/11 A2995 RMK A01 T01980106  RH  055%=      5-min Rain = 0
KCO2 230039Z 17014KT 20/11 A2995 RMK A01 T01970106  RH  056%=      5-min Rain = 0
KCO2 230040Z 17012KT 20/11 A2995 RMK A01 T01970106  RH  056%=      5-min Rain = 0
KCO2 230041Z 18012KT 20/11 A2995 RMK A01 T01970106  RH  056%=      5-min Rain = 0
KCO2 230042Z 18013KT 20/11 A2995 RMK A01 T01960106  RH  056%=      5-min Rain = 0
KCO2 230043Z 18014KT 20/11 A2995 RMK A01 T01960106  RH  056%=      5-min Rain = 0
KCO2 230044Z 18014KT 20/11 A2995 RMK A01 T01960106  RH  056%=      5-min Rain = 0
KCO2 230045Z 18013KT 20/11 A2995 RMK A01 T01960106  RH  056%=      5-min Rain = 0
KCO2 230046Z 18013KT 20/11 A2995 RMK A01 T01960106  RH  056%=      5-min Rain = 0
KCO2 230047Z 18012KT 20/11 A2995 RMK A01 T01950106  RH  056%=      5-min Rain = 0
KCO2 230048Z 18011KT 19/11 A2995 RMK A01 T01940106  RH  057%=      5-min Rain = 0
KCO2 230049Z 18011KT 19/11 A2995 RMK A01 T01940106  RH  057%=      5-min Rain = 0
KCO2 230050Z 18012KT 19/11 A2995 RMK A01 T01930106  RH  057%=      5-min Rain = 0
KCO2 230051Z 17013KT 19/11 A2995 RMK A01 T01930106  RH  057%=      5-min Rain = 0
KCO2 230052Z 18011KT 19/11 A2995 RMK A01 T01930106  RH  057%=      5-min Rain = 0
KCO2 230053Z 17011KT 19/11 A2995 RMK A01 T01920106  RH  057%=      5-min Rain = 0
KCO2 230054Z 17012KT 19/11 A2995 RMK A01 T01920106  RH  058%=      5-min Rain = 0
KCO2 230055Z 17011KT 19/11 A2995 RMK A01 T01920106  RH  058%=      5-min Rain = 0
KCO2 230056Z 17011KT 19/11 A2995 RMK A01 T01910106  RH  058%=      5-min Rain = 0
KCO2 230057Z 17013KT 19/11 A2995 RMK A01 T01910107  RH  058%=      5-min Rain = 0
KCO2 230058Z 17012KT 19/11 A2995 RMK A01 T01910106  RH  058%=      5-min Rain = 0
KCO2 230059Z 18010KT 19/11 A2995 RMK A01 T01900106  RH  058%=      5-min Rain = 0
KCO2 230100Z 17013KT 19/11 A2995 RMK A01 T01910107  RH  058%=      5-min Rain = 0
KCO2 230101Z 17012KT 19/11 A2995 RMK A01 T01900106  RH  058%=      5-min Rain = 0
KCO2 230102Z 17012KT 19/11 A2995 RMK A01 T01900106  RH  058%=      5-min Rain = 0
KCO2 230103Z 17011KT 19/11 A2995 RMK A01 T01900106  RH  058%=      5-min Rain = 0
KCO2 230104Z 17009KT 19/11 A2996 RMK A01 T01900106  RH  058%=      5-min Rain = 0
KCO2 230105Z 17010KT 19/11 A2996 RMK A01 T01890106  RH  059%=      5-min Rain = 0
KCO2 230106Z 17011KT 19/11 A2995 RMK A01 T01880106  RH  059%=      5-min Rain = 0
KCO2 230107Z 17011KT 19/11 A2995 RMK A01 T01880106  RH  059%=      5-min Rain = 0
KCO2 230108Z 18011KT 19/11 A2995 RMK A01 T01880106  RH  059%=      5-min Rain = 0
KCO2 230109Z 17011KT 19/11 A2995 RMK A01 T01880106  RH  059%=      5-min Rain = 0
KCO2 230110Z 18010KT 19/11 A2995 RMK A01 T01880106  RH  059%=      5-min Rain = 0
KCO2 230111Z 17010KT 19/11 A2995 RMK A01 T01880107  RH  059%=      5-min Rain = 0
KCO2 230112Z 17010KT 19/11 A2995 RMK A01 T01870106  RH  059%=      5-min Rain = 0
KCO2 230113Z 17010KT 19/11 A2995 RMK A01 T01870106  RH  059%=      5-min Rain = 0
KCO2 230114Z 17011KT 19/11 A2995 RMK A01 T01870107  RH  059%=      5-min Rain = 0
KCO2 230115Z 17011KT 19/11 A2995 RMK A01 T01870106  RH  059%=      5-min Rain = 0
KCO2 230116Z 17010KT 19/11 A2995 RMK A01 T01870106  RH  059%=      5-min Rain = 0
KCO2 230117Z 17010KT 19/11 A2995 RMK A01 T01870106  RH  059%=      5-min Rain = 0
KCO2 230118Z 17010KT 19/11 A2995 RMK A01 T01870107  RH  059%=      5-min Rain = 0
KCO2 230119Z 17009KT 19/11 A2995 RMK A01 T01870107  RH  060%=      5-min Rain = 0
KCO2 230120Z 17010KT 19/11 A2995 RMK A01 T01860106  RH  060%=      5-min Rain = 0
KCO2 230121Z 17009KT 19/11 A2995 RMK A01 T01860106  RH  060%=      5-min Rain = 0
KCO2 230122Z 17009KT 19/11 A2995 RMK A01 T01860107  RH  060%=      5-min Rain = 0
KCO2 230123Z 17009KT 19/11 A2995 RMK A01 T01850107  RH  060%=      5-min Rain = 0
KCO2 230124Z 17008KT 19/11 A2995 RMK A01 T01850107  RH  060%=      5-min Rain = 0
KCO2 230125Z 17008KT 18/11 A2995 RMK A01 T01840106  RH  061%=      5-min Rain = 0
KCO2 230126Z 17009KT 18/11 A2995 RMK A01 T01840106  RH  061%=      5-min Rain = 0
KCO2 230127Z 17008KT 18/11 A2996 RMK A01 T01830107  RH  061%=      5-min Rain = 0
KCO2 230128Z 17008KT 18/11 A2996 RMK A01 T01830107  RH  061%=      5-min Rain = 0
KCO2 230129Z 16008KT 18/11 A2996 RMK A01 T01830107  RH  061%=      5-min Rain = 0
KCO2 230130Z 17008KT 18/11 A2996 RMK A01 T01820107  RH  061%=      5-min Rain = 0
KCO2 230131Z 17008KT 18/11 A2996 RMK A01 T01820107  RH  061%=      5-min Rain = 0
KCO2 230132Z 17008KT 18/11 A2996 RMK A01 T01810107  RH  062%=      5-min Rain = 0
KCO2 230133Z 17008KT 18/11 A2996 RMK A01 T01810107  RH  062%=      5-min Rain = 0
KCO2 230134Z 17009KT 18/11 A2996 RMK A01 T01800107  RH  062%=      5-min Rain = 0
KCO2 230135Z 17009KT 18/11 A2996 RMK A01 T01800107  RH  062%=      5-min Rain = 0
KCO2 230136Z 17008KT 18/11 A2996 RMK A01 T01800107  RH  062%=      5-min Rain = 0
KCO2 230137Z 17008KT 18/11 A2996 RMK A01 T01800107  RH  062%=      5-min Rain = 0
KCO2 230138Z 17007KT 18/11 A2996 RMK A01 T01800107  RH  062%=      5-min Rain = 0
KCO2 230139Z 17008KT 18/11 A2996 RMK A01 T01790107  RH  063%=      5-min Rain = 0
KCO2 230140Z 17008KT 18/11 A2996 RMK A01 T01790107  RH  063%=      5-min Rain = 0
KCO2 230141Z 17009KT 18/11 A2996 RMK A01 T01780107  RH  063%=      5-min Rain = 0
KCO2 230142Z 17007KT 18/11 A2996 RMK A01 T01780107  RH  063%=      5-min Rain = 0
KCO2 230143Z 17008KT 18/11 A2996 RMK A01 T01780107  RH  063%=      5-min Rain = 0
KCO2 230144Z 17007KT 18/11 A2996 RMK A01 T01780107  RH  063%=      5-min Rain = 0
KCO2 230145Z 17007KT 18/11 A2996 RMK A01 T01780107  RH  063%=      5-min Rain = 0
KCO2 230146Z 17008KT 18/11 A2996 RMK A01 T01770107  RH  063%=      5-min Rain = 0
KCO2 230147Z 17007KT 18/11 A2996 RMK A01 T01780107  RH  063%=      5-min Rain = 0
KCO2 230148Z 17007KT 18/11 A2996 RMK A01 T01770107  RH  063%=      5-min Rain = 0
KCO2 230149Z 17007KT 18/11 A2996 RMK A01 T01770107  RH  064%=      5-min Rain = 0
KCO2 230150Z 17007KT 18/11 A2996 RMK A01 T01770107  RH  064%=      5-min Rain = 0
KCO2 230151Z 17008KT 18/11 A2996 RMK A01 T01770107  RH  064%=      5-min Rain = 0
KCO2 230152Z 17007KT 18/11 A2996 RMK A01 T01770107  RH  064%=      5-min Rain = 0
KCO2 230153Z 17007KT 18/11 A2997 RMK A01 T01770107  RH  064%=      5-min Rain = 0
KCO2 230154Z 17008KT 18/11 A2997 RMK A01 T01760107  RH  064%=      5-min Rain = 0
KCO2 230155Z 17007KT 18/11 A2997 RMK A01 T01760107  RH  064%=      5-min Rain = 0
KCO2 230156Z 16007KT 18/11 A2997 RMK A01 T01760107  RH  064%=      5-min Rain = 0
KCO2 230157Z 17007KT 18/11 A2997 RMK A01 T01760107  RH  064%=      5-min Rain = 0
KCO2 230158Z 16007KT 18/11 A2997 RMK A01 T01750107  RH  064%=      5-min Rain = 0
KCO2 230159Z 16006KT 18/11 A2997 RMK A01 T01750107  RH  064%=      5-min Rain = 0
KCO2 230200Z 16006KT 18/11 A2997 RMK A01 T01750107  RH  064%=      5-min Rain = 0
KCO2 230201Z 16006KT 18/11 A2997 RMK A01 T01750107  RH  064%=      5-min Rain = 0
KCO2 230202Z 16006KT 17/11 A2997 RMK A01 T01740107  RH  065%=      5-min Rain = 0
KCO2 230203Z 16007KT 17/11 A2997 RMK A01 T01740107  RH  065%=      5-min Rain = 0
KCO2 230204Z 16008KT 17/11 A2997 RMK A01 T01740107  RH  065%=      5-min Rain = 0
KCO2 230205Z 16007KT 17/11 A2997 RMK A01 T01730107  RH  065%=      5-min Rain = 0
KCO2 230206Z 16007KT 17/11 A2997 RMK A01 T01730107  RH  065%=      5-min Rain = 0
KCO2 230207Z 16007KT 17/11 A2997 RMK A01 T01730107  RH  065%=      5-min Rain = 0
KCO2 230208Z 15006KT 17/11 A2997 RMK A01 T01730107  RH  065%=      5-min Rain = 0
KCO2 230209Z 15007KT 17/11 A2997 RMK A01 T01730107  RH  065%=      5-min Rain = 0
KCO2 230210Z 15006KT 17/11 A2997 RMK A01 T01720107  RH  065%=      5-min Rain = 0
KCO2 230211Z 15006KT 17/11 A2997 RMK A01 T01720107  RH  065%=      5-min Rain = 0
KCO2 230212Z 15006KT 17/11 A2997 RMK A01 T01710106  RH  066%=      5-min Rain = 0
KCO2 230213Z 15006KT 17/11 A2997 RMK A01 T01710107  RH  066%=      5-min Rain = 0
KCO2 230214Z 15007KT 17/11 A2997 RMK A01 T01710106  RH  066%=      5-min Rain = 0
KCO2 230215Z 15007KT 17/11 A2997 RMK A01 T01710107  RH  066%=      5-min Rain = 0
KCO2 230216Z 15007KT 17/11 A2997 RMK A01 T01700107  RH  066%=      5-min Rain = 0
KCO2 230217Z 14006KT 17/11 A2997 RMK A01 T01700107  RH  066%=      5-min Rain = 0
KCO2 230218Z 14006KT 17/11 A2997 RMK A01 T01700107  RH  066%=      5-min Rain = 0
KCO2 230219Z 14006KT 17/11 A2997 RMK A01 T01690107  RH  067%=      5-min Rain = 0
KCO2 230220Z 14006KT 17/11 A2997 RMK A01 T01680106  RH  067%=      5-min Rain = 0
KCO2 230221Z 14006KT 17/11 A2997 RMK A01 T01680107  RH  067%=      5-min Rain = 0
KCO2 230222Z 14006KT 17/11 A2997 RMK A01 T01670106  RH  067%=      5-min Rain = 0
KCO2 230223Z 14007KT 17/11 A2997 RMK A01 T01660106  RH  067%=      5-min Rain = 0
KCO2 230224Z 14007KT 17/11 A2997 RMK A01 T01660106  RH  068%=      5-min Rain = 0
KCO2 230225Z 14007KT 17/11 A2997 RMK A01 T01660106  RH  068%=      5-min Rain = 0
KCO2 230226Z 14007KT 17/11 A2997 RMK A01 T01650106  RH  068%=      5-min Rain = 0
KCO2 230227Z 14007KT 17/11 A2997 RMK A01 T01650106  RH  068%=      5-min Rain = 0
KCO2 230228Z 14007KT 17/11 A2997 RMK A01 T01650106  RH  068%=      5-min Rain = 0
KCO2 230229Z 14007KT 17/11 A2997 RMK A01 T01660107  RH  068%=      5-min Rain = 0
KCO2 230230Z 14007KT 17/11 A2997 RMK A01 T01670107  RH  068%=      5-min Rain = 0
KCO2 230231Z 14007KT 17/11 A2997 RMK A01 T01670107  RH  068%=      5-min Rain = 0
KCO2 230232Z 14007KT 17/11 A2997 RMK A01 T01660107  RH  068%=      5-min Rain = 0
KCO2 230233Z 14008KT 17/11 A2997 RMK A01 T01650106  RH  068%=      5-min Rain = 0
KCO2 230234Z 15008KT 16/11 A2997 RMK A01 T01640106  RH  069%=      5-min Rain = 0
KCO2 230235Z 15007KT 17/11 A2997 RMK A01 T01650107  RH  068%=      5-min Rain = 0
KCO2 230236Z 15007KT 17/11 A2997 RMK A01 T01660107  RH  068%=      5-min Rain = 0
KCO2 230237Z 15007KT 17/11 A2997 RMK A01 T01650106  RH  068%=      5-min Rain = 0
KCO2 230238Z 15007KT 17/11 A2997 RMK A01 T01660107  RH  068%=      5-min Rain = 0
KCO2 230239Z 15007KT 17/11 A2997 RMK A01 T01660107  RH  068%=      5-min Rain = 0
KCO2 230240Z 15007KT 17/11 A2997 RMK A01 T01660107  RH  068%=      5-min Rain = 0
KCO2 230241Z 16007KT 17/11 A2997 RMK A01 T01660107  RH  068%=      5-min Rain = 0
KCO2 230242Z 16007KT 17/11 A2997 RMK A01 T01660107  RH  068%=      5-min Rain = 0
KCO2 230243Z 15007KT 17/11 A2997 RMK A01 T01660107  RH  068%=      5-min Rain = 0
KCO2 230244Z 15007KT 17/11 A2997 RMK A01 T01660107  RH  068%=      5-min Rain = 0
KCO2 230245Z 15007KT 17/11 A2997 RMK A01 T01660107  RH  068%=      5-min Rain = 0
KCO2 230246Z 15008KT 17/11 A2997 RMK A01 T01660107  RH  068%=      5-min Rain = 0
KCO2 230247Z 15008KT 17/11 A2997 RMK A01 T01660107  RH  068%=      5-min Rain = 0
KCO2 230248Z 15007KT 17/11 A2997 RMK A01 T01660107  RH  068%=      5-min Rain = 0
KCO2 230249Z 15007KT 17/11 A2997 RMK A01 T01660107  RH  068%=      5-min Rain = 0
KCO2 230250Z 15007KT 17/11 A2997 RMK A01 T01660107  RH  068%=      5-min Rain = 0
KCO2 230251Z 15008KT 17/11 A2997 RMK A01 T01660107  RH  068%=      5-min Rain = 0
KCO2 230252Z 15007KT 17/11 A2997 RMK A01 T01660107  RH  068%=      5-min Rain = 0
KCO2 230253Z 15007KT 17/11 A2997 RMK A01 T01660107  RH  068%=      5-min Rain = 0
KCO2 230254Z 15008KT 17/11 A2997 RMK A01 T01660107  RH  068%=      5-min Rain = 0
KCO2 230255Z 15007KT 17/11 A2997 RMK A01 T01660107  RH  068%=      5-min Rain = 0
KCO2 230256Z 15007KT 17/11 A2998 RMK A01 T01650107  RH  068%=      5-min Rain = 0
KCO2 230257Z 15007KT 17/11 A2998 RMK A01 T01650107  RH  068%=      5-min Rain = 0
KCO2 230258Z 15006KT 16/11 A2998 RMK A01 T01640107  RH  069%=      5-min Rain = 0
KCO2 230259Z 14007KT 16/11 A2998 RMK A01 T01640107  RH  069%=      5-min Rain = 0
KCO2 230300Z 15007KT 16/11 A2998 RMK A01 T01640107  RH  069%=      5-min Rain = 0
KCO2 230301Z 14007KT 16/11 A2998 RMK A01 T01630107  RH  069%=      5-min Rain = 0
KCO2 230302Z 15007KT 16/11 A2998 RMK A01 T01630107  RH  069%=      5-min Rain = 0
KCO2 230303Z 14006KT 16/11 A2998 RMK A01 T01630107  RH  069%=      5-min Rain = 0
KCO2 230304Z 14007KT 16/11 A2998 RMK A01 T01620107  RH  070%=      5-min Rain = 0
KCO2 230305Z 15006KT 16/11 A2998 RMK A01 T01620107  RH  070%=      5-min Rain = 0
KCO2 230306Z 14007KT 16/11 A2998 RMK A01 T01620107  RH  070%=      5-min Rain = 0
KCO2 230307Z 15007KT 16/11 A2998 RMK A01 T01620107  RH  070%=      5-min Rain = 0
KCO2 230308Z 15007KT 16/11 A2998 RMK A01 T01620107  RH  070%=      5-min Rain = 0
KCO2 230309Z 15007KT 16/11 A2998 RMK A01 T01620108  RH  070%=      5-min Rain = 0
KCO2 230310Z 15007KT 16/11 A2998 RMK A01 T01620107  RH  070%=      5-min Rain = 0
KCO2 230311Z 15007KT 16/11 A2998 RMK A01 T01630108  RH  070%=      5-min Rain = 0
KCO2 230312Z 15007KT 16/11 A2998 RMK A01 T01630107  RH  069%=      5-min Rain = 0
KCO2 230313Z 15008KT 16/11 A2998 RMK A01 T01640108  RH  069%=      5-min Rain = 0
KCO2 230314Z 15008KT 16/11 A2998 RMK A01 T01630108  RH  069%=      5-min Rain = 0
KCO2 230315Z 15008KT 16/11 A2998 RMK A01 T01640107  RH  069%=      5-min Rain = 0
KCO2 230316Z 15008KT 16/11 A2998 RMK A01 T01640108  RH  069%=      5-min Rain = 0
KCO2 230317Z 15007KT 16/11 A2998 RMK A01 T01640108  RH  069%=      5-min Rain = 0
KCO2 230318Z 15007KT 17/11 A2999 RMK A01 T01650108  RH  069%=      5-min Rain = 0
KCO2 230319Z 15007KT 17/11 A2999 RMK A01 T01650108  RH  069%=      5-min Rain = 0
KCO2 230320Z 15006KT 16/11 A2998 RMK A01 T01640108  RH  069%=      5-min Rain = 0
KCO2 230321Z 14007KT 16/11 A2998 RMK A01 T01630108  RH  070%=      5-min Rain = 0
KCO2 230322Z 14008KT 16/11 A2998 RMK A01 T01630108  RH  070%=      5-min Rain = 0
KCO2 230323Z 14007KT 16/11 A2998 RMK A01 T01630108  RH  070%=      5-min Rain = 0
KCO2 230324Z 14007KT 16/11 A2998 RMK A01 T01620108  RH  070%=      5-min Rain = 0
KCO2 230325Z 14007KT 16/11 A2998 RMK A01 T01620108  RH  070%=      5-min Rain = 0
KCO2 230326Z 15007KT 16/11 A2998 RMK A01 T01610108  RH  070%=      5-min Rain = 0
KCO2 230327Z 15007KT 16/11 A2999 RMK A01 T01620108  RH  070%=      5-min Rain = 0
KCO2 230328Z 15008KT 16/11 A2999 RMK A01 T01610108  RH  070%=      5-min Rain = 0
KCO2 230329Z 15008KT 16/11 A2999 RMK A01 T01610108  RH  070%=      5-min Rain = 0
KCO2 230330Z 15008KT 16/11 A2999 RMK A01 T01620108  RH  070%=      5-min Rain = 0
KCO2 230331Z 15007KT 16/11 A2999 RMK A01 T01620108  RH  070%=      5-min Rain = 0
KCO2 230332Z 15007KT 16/11 A2999 RMK A01 T01620108  RH  070%=      5-min Rain = 0
KCO2 230333Z 15007KT 16/11 A2999 RMK A01 T01630108  RH  070%=      5-min Rain = 0
KCO2 230334Z 15007KT 16/11 A2999 RMK A01 T01630108  RH  070%=      5-min Rain = 0
KCO2 230335Z 15009KT 16/11 A2999 RMK A01 T01630108  RH  070%=      5-min Rain = 0
KCO2 230336Z 15008KT 16/11 A2999 RMK A01 T01640108  RH  070%=      5-min Rain = 0
KCO2 230337Z 15007KT 16/11 A2999 RMK A01 T01640108  RH  069%=      5-min Rain = 0
KCO2 230338Z 15007KT 16/11 A2999 RMK A01 T01640108  RH  069%=      5-min Rain = 0
KCO2 230339Z 15008KT 16/11 A2999 RMK A01 T01640108  RH  069%=      5-min Rain = 0
KCO2 230340Z 15009KT 16/11 A2999 RMK A01 T01640108  RH  069%=      5-min Rain = 0
KCO2 230341Z 15008KT 17/11 A2999 RMK A01 T01650108  RH  069%=      5-min Rain = 0
KCO2 230342Z 15008KT 17/11 A2999 RMK A01 T01650108  RH  069%=      5-min Rain = 0
KCO2 230343Z 15007KT 17/11 A2999 RMK A01 T01650108  RH  069%=      5-min Rain = 0
KCO2 230344Z 15008KT 17/11 A2999 RMK A01 T01650109  RH  069%=      5-min Rain = 0
KCO2 230345Z 16008KT 16/11 A2999 RMK A01 T01640109  RH  069%=      5-min Rain = 0
KCO2 230346Z 15008KT 16/11 A2999 RMK A01 T01640108  RH  069%=      5-min Rain = 0
KCO2 230347Z 16007KT 17/11 A2999 RMK A01 T01650108  RH  069%=      5-min Rain = 0
KCO2 230348Z 15007KT 17/11 A2999 RMK A01 T01650109  RH  069%=      5-min Rain = 0
KCO2 230349Z 15007KT 16/11 A2999 RMK A01 T01640108  RH  069%=      5-min Rain = 0
KCO2 230350Z 15007KT 16/11 A2999 RMK A01 T01640109  RH  070%=      5-min Rain = 0
KCO2 230351Z 14007KT 16/11 A2999 RMK A01 T01630108  RH  070%=      5-min Rain = 0
KCO2 230352Z 15007KT 16/11 A2999 RMK A01 T01630108  RH  070%=      5-min Rain = 0
KCO2 230353Z 15007KT 16/11 A2999 RMK A01 T01620108  RH  070%=      5-min Rain = 0
KCO2 230354Z 15008KT 16/11 A2999 RMK A01 T01620109  RH  070%=      5-min Rain = 0
KCO2 230355Z 15007KT 16/11 A2999 RMK A01 T01620108  RH  070%=      5-min Rain = 0
KCO2 230356Z 15007KT 16/11 A2999 RMK A01 T01630109  RH  070%=      5-min Rain = 0
KCO2 230357Z 15007KT 16/11 A2999 RMK A01 T01630109  RH  070%=      5-min Rain = 0
KCO2 230358Z 15008KT 16/11 A2999 RMK A01 T01630109  RH  070%=      5-min Rain = 0
KCO2 230359Z 15007KT 16/11 A2999 RMK A01 T01620109  RH  071%=      5-min Rain = 0
KCO2 230400Z 14008KT 16/11 A2999 RMK A01 T01620109  RH  071%=      5-min Rain = 0
KCO2 230401Z 14007KT 16/11 A2999 RMK A01 T01620109  RH  071%=      5-min Rain = 0
KCO2 230402Z 14007KT 16/11 A2999 RMK A01 T01610108  RH  071%=      5-min Rain = 0
KCO2 230403Z 14007KT 16/11 A2999 RMK A01 T01600108  RH  071%=      5-min Rain = 0
KCO2 230404Z 14007KT 16/11 A2999 RMK A01 T01590108  RH  072%=      5-min Rain = 0
KCO2 230405Z 14006KT 16/11 A2999 RMK A01 T01590108  RH  072%=      5-min Rain = 0
KCO2 230406Z 14007KT 16/11 A2999 RMK A01 T01580108  RH  072%=      5-min Rain = 0
KCO2 230407Z 15007KT 16/11 A2999 RMK A01 T01580108  RH  072%=      5-min Rain = 0
KCO2 230408Z 15007KT 16/11 A2999 RMK A01 T01570108  RH  072%=      5-min Rain = 0
KCO2 230409Z 15007KT 16/11 A2999 RMK A01 T01580108  RH  072%=      5-min Rain = 0
KCO2 230410Z 14008KT 16/11 A2999 RMK A01 T01580108  RH  072%=      5-min Rain = 0
KCO2 230411Z 14009KT 16/11 A2999 RMK A01 T01580108  RH  072%=      5-min Rain = 0
KCO2 230412Z 15009KT 16/11 A2999 RMK A01 T01590109  RH  072%=      5-min Rain = 0
KCO2 230413Z 14008KT 16/11 A2999 RMK A01 T01600109  RH  072%=      5-min Rain = 0
KCO2 230414Z 14008KT 16/11 A2998 RMK A01 T01610109  RH  071%=      5-min Rain = 0
KCO2 230415Z 14009KT 16/11 A2998 RMK A01 T01610109  RH  071%=      5-min Rain = 0
KCO2 230416Z 14008KT 16/11 A2998 RMK A01 T01610109  RH  071%=      5-min Rain = 0
KCO2 230417Z 14007KT 16/11 A2998 RMK A01 T01610109  RH  071%=      5-min Rain = 0
KCO2 230418Z 14007KT 16/11 A2998 RMK A01 T01610109  RH  071%=      5-min Rain = 0
KCO2 230419Z 14008KT 16/11 A2998 RMK A01 T01600109  RH  071%=      5-min Rain = 0
KCO2 230420Z 14007KT 16/11 A2999 RMK A01 T01600109  RH  072%=      5-min Rain = 0
KCO2 230421Z 14007KT 16/11 A2999 RMK A01 T01590109  RH  072%=      5-min Rain = 0
KCO2 230422Z 14007KT 16/11 A2999 RMK A01 T01590109  RH  072%=      5-min Rain = 0
KCO2 230423Z 14007KT 16/11 A2999 RMK A01 T01580108  RH  072%=      5-min Rain = 0
KCO2 230424Z 14007KT 16/11 A2999 RMK A01 T01580108  RH  072%=      5-min Rain = 0
KCO2 230425Z 15007KT 16/11 A2999 RMK A01 T01570108  RH  072%=      5-min Rain = 0
KCO2 230426Z 15007KT 16/11 A2999 RMK A01 T01570108  RH  073%=      5-min Rain = 0
KCO2 230427Z 14006KT 16/11 A2999 RMK A01 T01570108  RH  073%=      5-min Rain = 0
KCO2 230428Z 14006KT 16/11 A2999 RMK A01 T01570108  RH  073%=      5-min Rain = 0
KCO2 230429Z 15007KT 16/11 A2999 RMK A01 T01560108  RH  073%=      5-min Rain = 0
KCO2 230430Z 15006KT 16/11 A2999 RMK A01 T01560108  RH  073%=      5-min Rain = 0
KCO2 230431Z 14006KT 16/11 A2999 RMK A01 T01550108  RH  073%=      5-min Rain = 0
KCO2 230432Z 15006KT 16/11 A2999 RMK A01 T01550108  RH  074%=      5-min Rain = 0
KCO2 230433Z 15007KT 15/11 A2999 RMK A01 T01540108  RH  074%=      5-min Rain = 0
KCO2 230434Z 15006KT 15/11 A2999 RMK A01 T01540108  RH  074%=      5-min Rain = 0
KCO2 230435Z 15006KT 15/11 A2999 RMK A01 T01540108  RH  074%=      5-min Rain = 0
KCO2 230436Z 15005KT 15/11 A2999 RMK A01 T01540108  RH  074%=      5-min Rain = 0
KCO2 230437Z 15006KT 15/11 A2999 RMK A01 T01540108  RH  074%=      5-min Rain = 0
KCO2 230438Z 16006KT 15/11 A2999 RMK A01 T01540108  RH  074%=      5-min Rain = 0
KCO2 230439Z 15005KT 16/11 A2999 RMK A01 T01550109  RH  074%=      5-min Rain = 0
KCO2 230440Z 16006KT 16/11 A2999 RMK A01 T01550109  RH  074%=      5-min Rain = 0
KCO2 230441Z 15005KT 16/11 A2999 RMK A01 T01550109  RH  074%=      5-min Rain = 0
KCO2 230442Z 16005KT 16/11 A2999 RMK A01 T01550109  RH  074%=      5-min Rain = 0
KCO2 230443Z 16005KT 15/11 A2999 RMK A01 T01540109  RH  074%=      5-min Rain = 0
KCO2 230444Z 16005KT 16/11 A2999 RMK A01 T01550109  RH  074%=      5-min Rain = 0
KCO2 230445Z 16005KT 15/11 A2999 RMK A01 T01540109  RH  074%=      5-min Rain = 0
KCO2 230446Z 16005KT 15/11 A2999 RMK A01 T01540109  RH  074%=      5-min Rain = 0
KCO2 230447Z 16006KT 15/11 A2999 RMK A01 T01540109  RH  074%=      5-min Rain = 0
KCO2 230448Z 16006KT 15/11 A2999 RMK A01 T01540109  RH  074%=      5-min Rain = 0
KCO2 230449Z 15006KT 15/11 A2999 RMK A01 T01530109  RH  075%=      5-min Rain = 0
KCO2 230450Z 15006KT 15/11 A2999 RMK A01 T01540109  RH  075%=      5-min Rain = 0
KCO2 230451Z 15006KT 15/11 A2999 RMK A01 T01540109  RH  075%=      5-min Rain = 0
KCO2 230452Z 15006KT 15/11 A2999 RMK A01 T01540109  RH  075%=      5-min Rain = 0
KCO2 230453Z 15006KT 15/11 A2999 RMK A01 T01540109  RH  075%=      5-min Rain = 0
KCO2 230454Z 15007KT 15/11 A2999 RMK A01 T01540109  RH  075%=      5-min Rain = 0
KCO2 230455Z 15007KT 15/11 A2999 RMK A01 T01540110  RH  075%=      5-min Rain = 0
KCO2 230456Z 15007KT 16/11 A2999 RMK A01 T01550110  RH  074%=      5-min Rain = 0
KCO2 230457Z 15007KT 16/11 A2999 RMK A01 T01560110  RH  074%=      5-min Rain = 0
KCO2 230458Z 15006KT 16/11 A2999 RMK A01 T01560110  RH  074%=      5-min Rain = 0
KCO2 230459Z 15006KT 16/11 A2999 RMK A01 T01560110  RH  074%=      5-min Rain = 0

Page generated in 0.1413 seconds.